Time,TemperatureF,DewpointF,PressureIn,WindDirection,WindDirectionDegrees,WindSpeedMPH,WindSpeedGustMPH,Humidity,HourlyPrecipIn,Conditions,Clouds,dailyrainin,SoftwareType,DateUTC
2013-01-15 00:00:00,30.0,5.0,30.28,East,85,0.0,0.0,34,0.00,CLR,,0.00,WeatherDisplay:10.37,2013-01-15 08:00:00,
2013-01-15 00:01:00,30.0,5.0,30.28,East,85,0.0,0.0,34,0.00,CLR,,0.00,WeatherDisplay:10.37,2013-01-15 08:01:00,
2013-01-15 00:02:00,30.0,5.0,30.28,East,85,0.0,0.0,34,0.00,CLR,,0.00,WeatherDisplay:10.37,2013-01-15 08:02:00,
2013-01-15 00:05:00,30.0,5.0,30.29,East,85,0.0,0.0,34,0.00,CLR,,0.00,WeatherDisplay:10.37,2013-01-15 08:05:00,
2013-01-15 00:07:00,30.0,3.7,30.28,East,85,0.0,0.0,32,0.00,CLR,,0.00,WeatherDisplay:10.37,2013-01-15 08:07:00,
2013-01-15 00:10:00,30.0,3.7,30.28,East,85,0.0,0.0,32,0.00,CLR,,0.00,WeatherDisplay:10.37,2013-01-15 08:10:00,
2013-01-15 00:13:00,30.0,3.7,30.29,East,85,0.0,0.0,32,0.00,CLR,,0.00,WeatherDisplay:10.37,2013-01-15 08:13:00,
2013-01-15 00:15:00,30.0,3.7,30.29,East,85,0.0,0.0,32,0.00,CLR,,0.00,WeatherDisplay:10.37,2013-01-15 08:15:00,
2013-01-15 00:18:00,29.8,4.1,30.28,East,85,0.0,0.0,33,0.00,CLR,,0.00,WeatherDisplay:10.37,2013-01-15 08:18:00,
2013-01-15 00:19:00,29.8,5.4,30.28,East,85,0.0,0.0,35,0.00,CLR,,0.00,WeatherDisplay:10.37,2013-01-15 08:19:00,
2013-01-15 00:20:00,29.8,4.8,30.28,East,85,0.0,0.0,34,0.00,CLR,,0.00,WeatherDisplay:10.37,2013-01-15 08:20:00,
2013-01-15 00:24:00,29.7,6.6,30.29,East,85,0.0,0.0,37,0.00,CLR,,0.00,WeatherDisplay:10.37,2013-01-15 08:24:00,
2013-01-15 00:25:00,29.6,6.5,30.29,East,85,0.0,0.0,37,0.00,CLR,,0.00,WeatherDisplay:10.37,2013-01-15 08:25:00,
2013-01-15 00:29:00,29.4,6.9,30.28,East,85,0.0,0.0,38,0.00,CLR,,0.00,WeatherDisplay:10.37,2013-01-15 08:29:00,
2013-01-15 00:30:00,29.4,6.8,30.28,East,85,0.0,0.0,38,0.00,CLR,,0.00,WeatherDisplay:10.37,2013-01-15 08:30:00,
2013-01-15 00:31:00,29.3,6.2,30.28,East,85,0.0,0.0,37,0.00,CLR,,0.00,WeatherDisplay:10.37,2013-01-15 08:31:00,
2013-01-15 00:34:00,29.0,5.9,30.28,East,85,0.0,0.0,37,0.00,CLR,,0.00,WeatherDisplay:10.37,2013-01-15 08:34:00,
2013-01-15 00:35:00,29.0,5.9,30.28,East,85,0.0,0.0,37,0.00,CLR,,0.00,WeatherDisplay:10.37,2013-01-15 08:35:00,
2013-01-15 00:36:00,29.0,5.9,30.28,East,85,0.0,0.0,37,0.00,CLR,,0.00,WeatherDisplay:10.37,2013-01-15 08:36:00,
2013-01-15 00:39:00,28.8,5.8,30.29,East,85,0.0,0.0,37,0.00,CLR,,0.00,WeatherDisplay:10.37,2013-01-15 08:39:00,
2013-01-15 00:40:00,28.8,6.3,30.29,East,85,0.0,0.0,38,0.00,CLR,,0.00,WeatherDisplay:10.37,2013-01-15 08:40:00,
2013-01-15 00:41:00,28.8,6.3,30.29,East,85,0.0,0.0,38,0.00,CLR,,0.00,WeatherDisplay:10.37,2013-01-15 08:41:00,
2013-01-15 00:43:00,28.8,6.9,30.29,East,85,0.0,0.0,39,0.00,CLR,,0.00,WeatherDisplay:10.37,2013-01-15 08:43:00,
2013-01-15 00:46:00,28.7,6.8,30.29,East,85,0.0,0.0,39,0.00,CLR,,0.00,WeatherDisplay:10.37,2013-01-15 08:46:00,
2013-01-15 00:47:00,28.7,6.8,30.29,East,85,0.0,0.0,39,0.00,CLR,,0.00,WeatherDisplay:10.37,2013-01-15 08:47:00,
2013-01-15 00:48:00,28.7,6.8,30.29,East,85,0.0,0.0,39,0.00,CLR,,0.00,WeatherDisplay:10.37,2013-01-15 08:48:00,
2013-01-15 00:49:00,28.7,6.8,30.30,East,85,0.0,0.0,39,0.00,CLR,,0.00,WeatherDisplay:10.37,2013-01-15 08:49:00,
2013-01-15 00:53:00,28.7,5.1,30.29,East,85,0.0,0.0,36,0.00,CLR,,0.00,WeatherDisplay:10.37,2013-01-15 08:53:00,
2013-01-15 00:54:00,28.8,4.5,30.30,East,85,0.0,0.0,35,0.00,CLR,,0.00,WeatherDisplay:10.37,2013-01-15 08:54:00,
2013-01-15 00:57:00,29.0,4.7,30.30,East,85,0.0,0.0,35,0.00,CLR,,0.00,WeatherDisplay:10.37,2013-01-15 08:57:00,
2013-01-15 00:58:00,29.0,4.7,30.30,East,85,0.0,0.0,35,0.00,CLR,,0.00,WeatherDisplay:10.37,2013-01-15 08:58:00,
2013-01-15 01:00:00,29.1,4.8,30.30,East,85,0.0,0.0,35,0.00,CLR,,0.00,WeatherDisplay:10.37,2013-01-15 09:00:00,
2013-01-15 01:03:00,29.3,5.6,30.30,East,85,0.0,0.0,36,0.00,CLR,,0.00,WeatherDisplay:10.37,2013-01-15 09:03:00,
2013-01-15 01:05:00,29.3,5.6,30.30,East,85,0.0,0.0,36,0.00,CLR,,0.00,WeatherDisplay:10.37,2013-01-15 09:05:00,
2013-01-15 01:06:00,29.3,5.6,30.30,East,85,0.0,0.0,36,0.00,CLR,,0.00,WeatherDisplay:10.37,2013-01-15 09:06:00,
2013-01-15 01:09:00,29.1,6.6,30.30,East,85,0.0,0.0,38,0.00,CLR,,0.00,WeatherDisplay:10.37,2013-01-15 09:09:00,
2013-01-15 01:10:00,29.1,6.6,30.31,East,85,0.0,0.0,38,0.00,CLR,,0.00,WeatherDisplay:10.37,2013-01-15 09:10:00,
2013-01-15 01:15:00,29.0,6.5,30.30,East,91,0.0,0.0,38,0.00,CLR,,0.00,WeatherDisplay:10.37,2013-01-15 09:15:00,
2013-01-15 01:16:00,29.0,6.5,30.30,East,91,0.0,0.0,38,0.00,CLR,,0.00,WeatherDisplay:10.37,2013-01-15 09:16:00,
2013-01-15 01:17:00,29.0,5.9,30.30,East,91,0.0,0.0,37,0.00,CLR,,0.00,WeatherDisplay:10.37,2013-01-15 09:17:00,
2013-01-15 01:21:00,29.1,6.6,30.30,East,91,0.0,0.0,38,0.00,CLR,,0.00,WeatherDisplay:10.37,2013-01-15 09:21:00,
2013-01-15 01:23:00,29.1,6.6,30.30,East,91,0.0,0.0,38,0.00,CLR,,0.00,WeatherDisplay:10.37,2013-01-15 09:23:00,
2013-01-15 01:27:00,29.0,6.5,30.30,East,91,0.0,0.0,38,0.00,CLR,,0.00,WeatherDisplay:10.37,2013-01-15 09:27:00,
2013-01-15 01:33:00,28.8,6.9,30.31,East,91,0.0,0.0,39,0.00,CLR,,0.00,WeatherDisplay:10.37,2013-01-15 09:33:00,
2013-01-15 01:36:00,28.8,6.9,30.31,East,91,0.0,0.0,39,0.00,CLR,,0.00,WeatherDisplay:10.37,2013-01-15 09:36:00,
2013-01-15 01:38:00,28.7,6.8,30.31,East,91,0.0,0.0,39,0.00,CLR,,0.00,WeatherDisplay:10.37,2013-01-15 09:38:00,
2013-01-15 01:43:00,28.4,6.6,30.31,East,91,0.0,0.0,39,0.00,CLR,,0.00,WeatherDisplay:10.37,2013-01-15 09:43:00,
2013-01-15 01:44:00,28.4,6.6,30.31,East,91,0.0,0.0,39,0.00,CLR,,0.00,WeatherDisplay:10.37,2013-01-15 09:44:00,
2013-01-15 01:48:00,28.2,7.5,30.31,East,91,0.0,0.0,41,0.00,CLR,,0.00,WeatherDisplay:10.37,2013-01-15 09:48:00,
2013-01-15 01:49:00,28.2,8.0,30.31,East,91,0.0,0.0,42,0.00,CLR,,0.00,WeatherDisplay:10.37,2013-01-15 09:49:00,
2013-01-15 01:51:00,28.1,7.9,30.31,East,91,0.0,0.0,42,0.00,CLR,,0.00,WeatherDisplay:10.37,2013-01-15 09:51:00,
2013-01-15 01:55:00,27.9,6.1,30.31,East,91,0.0,0.0,39,0.00,CLR,,0.00,WeatherDisplay:10.37,2013-01-15 09:55:00,
2013-01-15 01:56:00,27.9,6.7,30.31,East,91,0.0,0.0,40,0.00,CLR,,0.00,WeatherDisplay:10.37,2013-01-15 09:56:00,
2013-01-15 01:57:00,27.9,6.7,30.31,East,91,0.0,0.0,40,0.00,CLR,,0.00,WeatherDisplay:10.37,2013-01-15 09:57:00,
2013-01-15 02:00:00,27.9,7.7,30.31,East,91,0.0,0.0,42,0.00,CLR,,0.00,WeatherDisplay:10.37,2013-01-15 10:00:00,
2013-01-15 02:01:00,27.9,7.7,30.31,East,91,0.0,0.0,42,0.00,CLR,,0.00,WeatherDisplay:10.37,2013-01-15 10:01:00,
2013-01-15 02:03:00,27.9,7.2,30.31,East,91,0.0,0.0,41,0.00,CLR,,0.00,WeatherDisplay:10.37,2013-01-15 10:03:00,
2013-01-15 02:06:00,27.9,7.7,30.31,East,91,0.0,0.0,42,0.00,CLR,,0.00,WeatherDisplay:10.37,2013-01-15 10:06:00,
2013-01-15 02:07:00,27.9,7.7,30.31,East,91,0.0,0.0,42,0.00,CLR,,0.00,WeatherDisplay:10.37,2013-01-15 10:07:00,
2013-01-15 02:11:00,27.9,8.8,30.31,East,91,0.0,0.0,44,0.00,CLR,,0.00,WeatherDisplay:10.37,2013-01-15 10:11:00,
2013-01-15 02:12:00,27.9,8.8,30.31,East,91,0.0,0.0,44,0.00,CLR,,0.00,WeatherDisplay:10.37,2013-01-15 10:12:00,
2013-01-15 02:17:00,27.9,7.7,30.32,East,84,0.0,0.0,42,0.00,CLR,,0.00,WeatherDisplay:10.37,2013-01-15 10:17:00,
2013-01-15 02:18:00,27.9,7.7,30.32,East,84,0.0,0.0,42,0.00,CLR,,0.00,WeatherDisplay:10.37,2013-01-15 10:18:00,
2013-01-15 02:19:00,28.1,7.4,30.32,East,84,0.0,0.0,41,0.00,CLR,,0.00,WeatherDisplay:10.37,2013-01-15 10:19:00,
2013-01-15 02:22:00,28.2,6.9,30.32,East,84,0.0,0.0,40,0.00,CLR,,0.00,WeatherDisplay:10.37,2013-01-15 10:22:00,
2013-01-15 02:24:00,28.4,6.6,30.32,East,84,0.0,0.0,39,0.00,CLR,,0.00,WeatherDisplay:10.37,2013-01-15 10:24:00,
2013-01-15 02:26:00,28.4,6.6,30.32,East,84,0.0,0.0,39,0.00,CLR,,0.00,WeatherDisplay:10.37,2013-01-15 10:26:00,
2013-01-15 02:31:00,28.5,6.6,30.32,East,84,0.0,0.0,39,0.00,CLR,,0.00,WeatherDisplay:10.37,2013-01-15 10:31:00,
2013-01-15 02:32:00,28.5,6.1,30.31,East,84,0.0,0.0,38,0.00,CLR,,0.00,WeatherDisplay:10.37,2013-01-15 10:32:00,
2013-01-15 02:37:00,28.8,6.3,30.32,East,84,0.0,0.0,38,0.00,CLR,,0.00,WeatherDisplay:10.37,2013-01-15 10:37:00,
2013-01-15 02:40:00,28.8,6.9,30.32,East,84,0.0,0.0,39,0.00,CLR,,0.00,WeatherDisplay:10.37,2013-01-15 10:40:00,
2013-01-15 02:42:00,28.8,6.9,30.32,East,84,0.0,0.0,39,0.00,CLR,,0.00,WeatherDisplay:10.37,2013-01-15 10:42:00,
2013-01-15 02:45:00,28.7,6.8,30.32,East,84,0.0,0.0,39,0.00,CLR,,0.00,WeatherDisplay:10.37,2013-01-15 10:45:00,
2013-01-15 02:47:00,28.7,6.8,30.32,East,84,0.0,0.0,39,0.00,CLR,,0.00,WeatherDisplay:10.37,2013-01-15 10:47:00,
2013-01-15 02:49:00,28.7,6.8,30.32,East,84,0.0,0.0,39,0.00,CLR,,0.00,WeatherDisplay:10.37,2013-01-15 10:49:00,
2013-01-15 02:50:00,28.7,6.8,30.32,East,84,0.0,0.0,39,0.00,CLR,,0.00,WeatherDisplay:10.37,2013-01-15 10:50:00,
2013-01-15 02:52:00,28.7,6.8,30.31,East,84,0.0,0.0,39,0.00,CLR,,0.00,WeatherDisplay:10.37,2013-01-15 10:52:00,
2013-01-15 02:54:00,28.5,6.6,30.31,East,84,0.0,0.0,39,0.00,CLR,,0.00,WeatherDisplay:10.37,2013-01-15 10:54:00,
2013-01-15 02:55:00,28.5,6.6,30.31,East,84,0.0,0.0,39,0.00,CLR,,0.00,WeatherDisplay:10.37,2013-01-15 10:55:00,
2013-01-15 02:57:00,28.5,6.6,30.31,East,84,0.0,0.0,39,0.00,CLR,,0.00,WeatherDisplay:10.37,2013-01-15 10:57:00,
2013-01-15 02:59:00,28.5,6.6,30.31,East,84,0.0,0.0,39,0.00,CLR,,0.00,WeatherDisplay:10.37,2013-01-15 10:59:00,
2013-01-15 03:00:00,28.4,7.1,30.31,East,84,0.0,0.0,40,0.00,CLR,,0.00,WeatherDisplay:10.37,2013-01-15 11:00:00,
2013-01-15 03:03:00,28.4,7.1,30.31,East,84,0.0,0.0,40,0.00,CLR,,0.00,WeatherDisplay:10.37,2013-01-15 11:03:00,
2013-01-15 03:05:00,28.4,7.1,30.31,East,84,0.0,0.0,40,0.00,CLR,,0.00,WeatherDisplay:10.37,2013-01-15 11:05:00,
2013-01-15 03:08:00,28.2,6.9,30.31,East,84,0.0,0.0,40,0.00,CLR,,0.00,WeatherDisplay:10.37,2013-01-15 11:08:00,
2013-01-15 03:09:00,28.2,7.5,30.31,East,84,0.0,0.0,41,0.00,CLR,,0.00,WeatherDisplay:10.37,2013-01-15 11:09:00,
2013-01-15 03:11:00,28.2,8.0,30.31,East,84,0.0,0.0,42,0.00,CLR,,0.00,WeatherDisplay:10.37,2013-01-15 11:11:00,
2013-01-15 03:15:00,28.1,7.9,30.31,East,84,0.0,0.0,42,0.00,CLR,,0.00,WeatherDisplay:10.37,2013-01-15 11:15:00,
2013-01-15 03:16:00,28.1,8.4,30.31,East,84,0.0,0.0,43,0.00,CLR,,0.00,WeatherDisplay:10.37,2013-01-15 11:16:00,
2013-01-15 03:20:00,27.9,7.7,30.31,East,84,0.0,0.0,42,0.00,CLR,,0.00,WeatherDisplay:10.37,2013-01-15 11:20:00,
2013-01-15 03:21:00,27.9,7.7,30.31,East,84,0.0,0.0,42,0.00,CLR,,0.00,WeatherDisplay:10.37,2013-01-15 11:21:00,
2013-01-15 03:22:00,27.9,8.3,30.31,East,84,0.0,0.0,43,0.00,CLR,,0.00,WeatherDisplay:10.37,2013-01-15 11:22:00,
2013-01-15 03:25:00,27.9,8.3,30.31,East,84,0.0,0.0,43,0.00,CLR,,0.00,WeatherDisplay:10.37,2013-01-15 11:25:00,
2013-01-15 03:26:00,27.9,8.3,30.32,East,84,0.0,0.0,43,0.00,CLR,,0.00,WeatherDisplay:10.37,2013-01-15 11:26:00,
2013-01-15 03:29:00,27.8,7.6,30.32,East,84,0.0,0.0,42,0.00,CLR,,0.00,WeatherDisplay:10.37,2013-01-15 11:29:00,
2013-01-15 03:30:00,27.8,7.6,30.32,East,84,0.0,0.0,42,0.00,CLR,,0.00,WeatherDisplay:10.37,2013-01-15 11:30:00,
2013-01-15 03:31:00,27.8,7.6,30.32,East,84,0.0,0.0,42,0.00,CLR,,0.00,WeatherDisplay:10.37,2013-01-15 11:31:00,
2013-01-15 03:34:00,27.8,8.2,30.32,East,84,0.0,0.0,43,0.00,CLR,,0.00,WeatherDisplay:10.37,2013-01-15 11:34:00,
2013-01-15 03:35:00,27.8,8.2,30.32,East,84,0.0,0.0,43,0.00,CLR,,0.00,WeatherDisplay:10.37,2013-01-15 11:35:00,
2013-01-15 03:38:00,27.6,8.0,30.32,East,84,0.0,0.0,43,0.00,CLR,,0.00,WeatherDisplay:10.37,2013-01-15 11:38:00,
2013-01-15 03:40:00,27.6,8.5,30.32,East,84,0.0,0.0,44,0.00,CLR,,0.00,WeatherDisplay:10.37,2013-01-15 11:40:00,
2013-01-15 03:41:00,27.6,8.5,30.32,East,84,0.0,0.0,44,0.00,CLR,,0.00,WeatherDisplay:10.37,2013-01-15 11:41:00,
2013-01-15 03:45:00,27.6,8.0,30.32,East,84,0.0,0.0,43,0.00,CLR,,0.00,WeatherDisplay:10.37,2013-01-15 11:45:00,
2013-01-15 03:46:00,27.6,8.0,30.32,East,84,0.0,0.0,43,0.00,CLR,,0.00,WeatherDisplay:10.37,2013-01-15 11:46:00,
2013-01-15 03:47:00,27.6,6.9,30.32,East,84,0.0,0.0,41,0.00,CLR,,0.00,WeatherDisplay:10.37,2013-01-15 11:47:00,
2013-01-15 03:48:00,27.8,7.1,30.32,East,84,0.0,0.0,41,0.00,CLR,,0.00,WeatherDisplay:10.37,2013-01-15 11:48:00,
2013-01-15 03:50:00,27.9,7.7,30.32,East,84,0.0,0.0,42,0.00,CLR,,0.00,WeatherDisplay:10.37,2013-01-15 11:50:00,
2013-01-15 03:51:00,27.9,7.2,30.32,East,84,0.0,0.0,41,0.00,CLR,,0.00,WeatherDisplay:10.37,2013-01-15 11:51:00,
2013-01-15 03:55:00,27.9,7.7,30.32,East,84,0.0,0.0,42,0.00,CLR,,0.00,WeatherDisplay:10.37,2013-01-15 11:55:00,
2013-01-15 03:57:00,27.9,8.3,30.32,East,84,0.0,0.0,43,0.00,CLR,,0.00,WeatherDisplay:10.37,2013-01-15 11:57:00,
2013-01-15 03:58:00,27.9,8.3,30.32,East,84,0.0,0.0,43,0.00,CLR,,0.00,WeatherDisplay:10.37,2013-01-15 11:58:00,
2013-01-15 04:01:00,27.8,8.2,30.32,East,84,0.0,0.0,43,0.00,CLR,,0.00,WeatherDisplay:10.37,2013-01-15 12:01:00,
2013-01-15 04:03:00,27.6,8.0,30.32,East,84,0.0,0.0,43,0.00,CLR,,0.00,WeatherDisplay:10.37,2013-01-15 12:03:00,
2013-01-15 04:04:00,27.6,8.0,30.32,East,84,0.0,0.0,43,0.00,CLR,,0.00,WeatherDisplay:10.37,2013-01-15 12:04:00,
2013-01-15 04:05:00,27.6,8.0,30.32,East,84,0.0,0.0,43,0.00,CLR,,0.00,WeatherDisplay:10.37,2013-01-15 12:05:00,
2013-01-15 04:06:00,27.6,8.0,30.32,East,84,0.0,0.0,43,0.00,CLR,,0.00,WeatherDisplay:10.37,2013-01-15 12:06:00,
2013-01-15 04:10:00,27.5,7.9,30.32,East,84,0.0,0.0,43,0.00,CLR,,0.00,WeatherDisplay:10.37,2013-01-15 12:10:00,
2013-01-15 04:12:00,27.3,7.7,30.33,East,84,0.0,0.0,43,0.00,CLR,,0.00,WeatherDisplay:10.37,2013-01-15 12:12:00,
2013-01-15 04:15:00,27.2,7.6,30.33,East,84,0.0,0.0,43,0.00,CLR,,0.00,WeatherDisplay:10.37,2013-01-15 12:15:00,
2013-01-15 04:16:00,27.2,8.1,30.33,East,84,0.0,0.0,44,0.00,CLR,,0.00,WeatherDisplay:10.37,2013-01-15 12:16:00,
2013-01-15 04:19:00,27.2,8.1,30.33,East,84,0.0,0.0,44,0.00,CLR,,0.00,WeatherDisplay:10.37,2013-01-15 12:19:00,
2013-01-15 04:21:00,27.2,7.6,30.33,East,84,0.0,0.0,43,0.00,CLR,,0.00,WeatherDisplay:10.37,2013-01-15 12:21:00,
2013-01-15 04:22:00,27.2,7.6,30.33,East,84,0.0,0.0,43,0.00,CLR,,0.00,WeatherDisplay:10.37,2013-01-15 12:22:00,
2013-01-15 04:24:00,27.2,7.6,30.33,East,84,0.0,0.0,43,0.00,CLR,,0.00,WeatherDisplay:10.37,2013-01-15 12:24:00,
2013-01-15 04:26:00,27.2,8.1,30.33,East,84,0.0,0.0,44,0.00,CLR,,0.00,WeatherDisplay:10.37,2013-01-15 12:26:00,
2013-01-15 04:28:00,27.2,8.1,30.33,East,84,0.0,0.0,44,0.00,CLR,,0.00,WeatherDisplay:10.37,2013-01-15 12:28:00,
2013-01-15 04:30:00,27.0,8.0,30.34,East,84,0.0,0.0,44,0.00,CLR,,0.00,WeatherDisplay:10.37,2013-01-15 12:30:00,
2013-01-15 04:32:00,27.0,8.0,30.34,East,84,0.0,0.0,44,0.00,CLR,,0.00,WeatherDisplay:10.37,2013-01-15 12:32:00,
2013-01-15 04:33:00,27.0,8.9,30.33,East,84,0.0,0.0,46,0.00,CLR,,0.00,WeatherDisplay:10.37,2013-01-15 12:33:00,
2013-01-15 04:37:00,27.0,8.9,30.33,East,84,0.0,0.0,46,0.00,CLR,,0.00,WeatherDisplay:10.37,2013-01-15 12:37:00,
2013-01-15 04:38:00,26.9,9.3,30.33,East,84,0.0,0.0,47,0.00,CLR,,0.00,WeatherDisplay:10.37,2013-01-15 12:38:00,
2013-01-15 04:40:00,26.9,9.8,30.34,East,84,0.0,0.0,48,0.00,CLR,,0.00,WeatherDisplay:10.37,2013-01-15 12:40:00,
2013-01-15 04:44:00,26.7,9.1,30.34,East,84,0.0,0.0,47,0.00,CLR,,0.00,WeatherDisplay:10.37,2013-01-15 12:44:00,
2013-01-15 04:46:00,26.7,8.7,30.34,East,84,0.0,0.0,46,0.00,CLR,,0.00,WeatherDisplay:10.37,2013-01-15 12:46:00,
2013-01-15 04:47:00,26.7,8.7,30.34,East,84,0.0,0.0,46,0.00,CLR,,0.00,WeatherDisplay:10.37,2013-01-15 12:47:00,
2013-01-15 04:49:00,26.7,9.1,30.34,East,84,0.0,0.0,47,0.00,CLR,,0.00,WeatherDisplay:10.37,2013-01-15 12:49:00,
2013-01-15 04:50:00,26.7,9.1,30.34,East,84,0.0,0.0,47,0.00,CLR,,0.00,WeatherDisplay:10.37,2013-01-15 12:50:00,
2013-01-15 04:53:00,26.7,9.1,30.33,East,84,0.0,0.0,47,0.00,CLR,,0.00,WeatherDisplay:10.37,2013-01-15 12:53:00,
2013-01-15 04:54:00,26.7,9.1,30.33,East,84,0.0,0.0,47,0.00,CLR,,0.00,WeatherDisplay:10.37,2013-01-15 12:54:00,
2013-01-15 04:55:00,26.7,9.1,30.33,East,84,0.0,0.0,47,0.00,CLR,,0.00,WeatherDisplay:10.37,2013-01-15 12:55:00,
2013-01-15 04:56:00,26.7,9.1,30.33,East,84,0.0,0.0,47,0.00,CLR,,0.00,WeatherDisplay:10.37,2013-01-15 12:56:00,
2013-01-15 04:59:00,26.7,8.7,30.33,East,84,0.0,0.0,46,0.00,CLR,,0.00,WeatherDisplay:10.37,2013-01-15 12:59:00,
2013-01-15 05:00:00,26.7,8.7,30.33,East,84,0.0,0.0,46,0.00,CLR,,0.00,WeatherDisplay:10.37,2013-01-15 13:00:00,
2013-01-15 05:01:00,26.9,7.4,30.34,East,84,0.0,0.0,43,0.00,CLR,,0.00,WeatherDisplay:10.37,2013-01-15 13:01:00,
2013-01-15 05:02:00,26.9,7.4,30.34,East,84,0.0,0.0,43,0.00,CLR,,0.00,WeatherDisplay:10.37,2013-01-15 13:02:00,
2013-01-15 05:05:00,27.0,7.4,30.34,East,84,0.0,0.0,43,0.00,CLR,,0.00,WeatherDisplay:10.37,2013-01-15 13:05:00,
2013-01-15 05:08:00,27.3,7.2,30.33,East,84,0.0,0.0,42,0.00,CLR,,0.00,WeatherDisplay:10.37,2013-01-15 13:08:00,
2013-01-15 05:11:00,27.5,6.8,30.33,East,84,0.0,0.0,41,0.00,CLR,,0.00,WeatherDisplay:10.37,2013-01-15 13:11:00,
2013-01-15 05:12:00,27.6,6.9,30.33,East,84,0.0,0.0,41,0.00,CLR,,0.00,WeatherDisplay:10.37,2013-01-15 13:12:00,
2013-01-15 05:13:00,27.6,6.9,30.34,East,84,0.0,0.0,41,0.00,CLR,,0.00,WeatherDisplay:10.37,2013-01-15 13:13:00,
2013-01-15 05:15:00,27.7,7.0,30.34,East,84,0.0,0.0,41,0.00,CLR,,0.00,WeatherDisplay:10.37,2013-01-15 13:15:00,
2013-01-15 05:16:00,27.8,7.1,30.34,East,84,0.0,0.0,41,0.00,CLR,,0.00,WeatherDisplay:10.37,2013-01-15 13:16:00,
2013-01-15 05:17:00,27.8,7.1,30.34,East,84,0.0,0.0,41,0.00,CLR,,0.00,WeatherDisplay:10.37,2013-01-15 13:17:00,
2013-01-15 05:18:00,27.9,6.7,30.34,East,84,0.0,0.0,40,0.00,CLR,,0.00,WeatherDisplay:10.37,2013-01-15 13:18:00,
2013-01-15 05:22:00,28.2,6.4,30.34,East,89,0.0,0.0,39,0.00,CLR,,0.00,WeatherDisplay:10.37,2013-01-15 13:22:00,
2013-01-15 05:23:00,28.2,6.4,30.34,East,89,0.0,0.0,39,0.00,CLR,,0.00,WeatherDisplay:10.37,2013-01-15 13:23:00,
2013-01-15 05:24:00,28.4,6.6,30.34,East,89,0.0,0.0,39,0.00,CLR,,0.00,WeatherDisplay:10.37,2013-01-15 13:24:00,
2013-01-15 05:25:00,28.4,6.6,30.34,East,89,0.0,0.0,39,0.00,CLR,,0.00,WeatherDisplay:10.37,2013-01-15 13:25:00,
2013-01-15 05:29:00,28.4,7.1,30.35,East,89,0.0,0.0,40,0.00,CLR,,0.00,WeatherDisplay:10.37,2013-01-15 13:29:00,
2013-01-15 05:30:00,28.4,7.1,30.35,East,89,0.0,0.0,40,0.00,CLR,,0.00,WeatherDisplay:10.37,2013-01-15 13:30:00,
2013-01-15 05:31:00,28.4,7.1,30.35,East,89,0.0,0.0,40,0.00,CLR,,0.00,WeatherDisplay:10.37,2013-01-15 13:31:00,
2013-01-15 05:33:00,28.4,7.7,30.35,East,89,0.0,0.0,41,0.00,CLR,,0.00,WeatherDisplay:10.37,2013-01-15 13:33:00,
2013-01-15 05:34:00,28.4,7.7,30.35,East,89,0.0,0.0,41,0.00,CLR,,0.00,WeatherDisplay:10.37,2013-01-15 13:34:00,
2013-01-15 05:36:00,28.2,8.5,30.35,East,89,0.0,0.0,43,0.00,CLR,,0.00,WeatherDisplay:10.37,2013-01-15 13:36:00,
2013-01-15 05:38:00,28.1,7.9,30.35,East,89,0.0,0.0,42,0.00,CLR,,0.00,WeatherDisplay:10.37,2013-01-15 13:38:00,
2013-01-15 05:40:00,28.1,7.9,30.35,East,89,0.0,0.0,42,0.00,CLR,,0.00,WeatherDisplay:10.37,2013-01-15 13:40:00,
2013-01-15 05:43:00,28.1,7.9,30.35,East,89,0.0,0.0,42,0.00,CLR,,0.00,WeatherDisplay:10.37,2013-01-15 13:43:00,
2013-01-15 05:44:00,28.1,7.9,30.36,East,89,0.0,0.0,42,0.00,CLR,,0.00,WeatherDisplay:10.37,2013-01-15 13:44:00,
2013-01-15 05:45:00,28.1,7.9,30.36,East,89,0.0,0.0,42,0.00,CLR,,0.00,WeatherDisplay:10.37,2013-01-15 13:45:00,
2013-01-15 05:48:00,28.1,7.9,30.34,North,4,255.3,0.0,42,0.00,CLR,,0.00,WeatherDisplay:10.37,2013-01-15 13:48:00,
2013-01-15 05:49:00,28.1,7.9,30.34,North,1,255.3,0.0,42,0.00,CLR,,0.00,WeatherDisplay:10.37,2013-01-15 13:49:00,
2013-01-15 05:50:00,28.1,7.9,30.34,North,9,127.0,255.0,42,0.00,CLR,,0.00,WeatherDisplay:10.37,2013-01-15 13:50:00,
2013-01-15 05:54:00,28.1,7.9,30.34,North,0,255.3,0.0,42,0.00,CLR,,0.00,WeatherDisplay:10.37,2013-01-15 13:54:00,
2013-01-15 05:55:00,28.1,7.9,30.34,North,0,255.3,0.0,42,0.00,CLR,,0.00,WeatherDisplay:10.37,2013-01-15 13:55:00,
2013-01-15 05:59:00,28.1,7.9,30.34,North,0,255.3,0.0,42,0.00,CLR,,0.00,WeatherDisplay:10.37,2013-01-15 13:59:00,
2013-01-15 06:00:00,28.1,7.9,30.34,North,0,255.3,0.0,42,0.00,CLR,,0.00,WeatherDisplay:10.37,2013-01-15 14:00:00,
2013-01-15 06:02:00,28.1,7.9,30.34,North,0,255.3,0.0,42,0.00,CLR,,0.00,WeatherDisplay:10.37,2013-01-15 14:02:00,
2013-01-15 06:04:00,28.1,7.9,30.34,North,0,255.3,0.0,42,0.00,CLR,,0.00,WeatherDisplay:10.37,2013-01-15 14:04:00,
2013-01-15 06:08:00,28.1,7.9,30.34,North,0,255.3,0.0,42,0.00,CLR,,0.00,WeatherDisplay:10.37,2013-01-15 14:08:00,
2013-01-15 06:12:00,28.1,7.9,30.34,North,0,255.3,0.0,42,0.00,CLR,,0.00,WeatherDisplay:10.37,2013-01-15 14:12:00,
2013-01-15 06:13:00,28.1,7.9,30.34,North,0,255.3,0.0,42,0.00,CLR,,0.00,WeatherDisplay:10.37,2013-01-15 14:13:00,
2013-01-15 06:14:00,28.1,7.9,30.34,North,0,255.3,0.0,42,0.00,CLR,,0.00,WeatherDisplay:10.37,2013-01-15 14:14:00,
2013-01-15 06:18:00,28.1,7.9,30.34,North,0,255.3,0.0,42,0.00,CLR,,0.00,WeatherDisplay:10.37,2013-01-15 14:18:00,
2013-01-15 06:19:00,28.1,7.9,30.34,North,0,255.3,0.0,42,0.00,CLR,,0.00,WeatherDisplay:10.37,2013-01-15 14:19:00,
2013-01-15 06:21:00,28.1,7.9,30.34,North,0,255.3,0.0,42,0.00,CLR,,0.00,WeatherDisplay:10.37,2013-01-15 14:21:00,
2013-01-15 06:23:00,28.1,7.9,30.34,North,0,255.3,0.0,42,0.00,CLR,,0.00,WeatherDisplay:10.37,2013-01-15 14:23:00,
2013-01-15 06:24:00,28.1,7.9,30.34,North,0,255.3,0.0,42,0.00,CLR,,0.00,WeatherDisplay:10.37,2013-01-15 14:24:00,
2013-01-15 06:25:00,28.1,7.9,30.34,North,1,0.0,255.0,42,0.00,CLR,,0.00,WeatherDisplay:10.37,2013-01-15 14:25:00,
2013-01-15 06:28:00,28.1,7.9,30.34,North,0,255.3,0.0,42,0.00,CLR,,0.00,WeatherDisplay:10.37,2013-01-15 14:28:00,
2013-01-15 06:29:00,28.1,7.9,30.34,North,0,255.3,0.0,42,0.00,CLR,,0.00,WeatherDisplay:10.37,2013-01-15 14:29:00,
2013-01-15 06:31:00,28.1,7.9,30.35,North,0,255.3,0.0,42,0.00,CLR,,0.00,WeatherDisplay:10.37,2013-01-15 14:31:00,
2013-01-15 06:34:00,28.1,7.9,30.35,North,0,255.3,0.0,42,0.00,CLR,,0.00,WeatherDisplay:10.37,2013-01-15 14:34:00,
2013-01-15 06:36:00,28.1,7.9,30.35,North,0,255.3,0.0,42,0.00,CLR,,0.00,WeatherDisplay:10.37,2013-01-15 14:36:00,
2013-01-15 06:37:00,28.1,7.9,30.35,North,0,255.3,0.0,42,0.00,CLR,,0.00,WeatherDisplay:10.37,2013-01-15 14:37:00,
2013-01-15 06:38:00,28.1,7.9,30.35,North,0,255.3,0.0,42,0.00,CLR,,0.00,WeatherDisplay:10.37,2013-01-15 14:38:00,
2013-01-15 06:42:00,28.1,7.9,30.35,North,0,255.3,0.0,42,0.00,CLR,,0.00,WeatherDisplay:10.37,2013-01-15 14:42:00,
2013-01-15 06:43:00,28.1,7.9,30.35,North,0,255.3,0.0,42,0.00,CLR,,0.00,WeatherDisplay:10.37,2013-01-15 14:43:00,
2013-01-15 06:46:00,28.1,7.9,30.35,North,0,255.3,0.0,42,0.00,CLR,,0.00,WeatherDisplay:10.37,2013-01-15 14:46:00,
2013-01-15 06:47:00,28.1,7.9,30.35,North,0,255.3,0.0,42,0.00,CLR,,0.00,WeatherDisplay:10.37,2013-01-15 14:47:00,
2013-01-15 06:50:00,28.1,7.9,30.35,North,0,255.3,0.0,42,0.00,CLR,,0.00,WeatherDisplay:10.37,2013-01-15 14:50:00,
2013-01-15 06:52:00,28.1,7.9,30.35,North,0,255.3,0.0,42,0.00,CLR,,0.00,WeatherDisplay:10.37,2013-01-15 14:52:00,
2013-01-15 06:55:00,28.1,7.9,30.34,North,1,0.0,255.0,42,0.00,CLR,,0.00,WeatherDisplay:10.37,2013-01-15 14:55:00,
2013-01-15 06:57:00,28.1,7.9,30.34,North,0,255.3,0.0,42,0.00,CLR,,0.00,WeatherDisplay:10.37,2013-01-15 14:57:00,
2013-01-15 06:58:00,28.1,7.9,30.34,North,0,255.3,0.0,42,0.00,CLR,,0.00,WeatherDisplay:10.37,2013-01-15 14:58:00,
2013-01-15 07:00:00,28.1,7.9,30.34,North,0,255.3,0.0,42,0.00,CLR,,0.00,WeatherDisplay:10.37,2013-01-15 15:00:00,
2013-01-15 07:03:00,28.1,7.9,30.35,North,0,255.3,0.0,42,0.00,CLR,,0.00,WeatherDisplay:10.37,2013-01-15 15:03:00,
2013-01-15 07:05:00,28.1,7.9,30.35,North,0,0.0,255.0,42,0.00,CLR,,0.00,WeatherDisplay:10.37,2013-01-15 15:05:00,
2013-01-15 07:06:00,28.1,7.9,30.35,North,0,255.3,0.0,42,0.00,CLR,,0.00,WeatherDisplay:10.37,2013-01-15 15:06:00,
2013-01-15 07:08:00,28.1,7.9,30.35,North,0,255.3,0.0,42,0.00,CLR,,0.00,WeatherDisplay:10.37,2013-01-15 15:08:00,
2013-01-15 07:10:00,28.1,7.9,30.35,North,1,0.0,255.0,42,0.00,CLR,,0.00,WeatherDisplay:10.37,2013-01-15 15:10:00,
2013-01-15 07:13:00,28.1,7.9,30.35,North,0,255.3,0.0,42,0.00,CLR,,0.00,WeatherDisplay:10.37,2013-01-15 15:13:00,
2013-01-15 07:15:00,28.1,7.9,30.35,North,0,0.0,255.0,42,0.00,CLR,,0.00,WeatherDisplay:10.37,2013-01-15 15:15:00,
2013-01-15 07:18:00,28.1,7.9,30.35,North,0,255.3,0.0,42,0.00,CLR,,0.00,WeatherDisplay:10.37,2013-01-15 15:18:00,
2013-01-15 07:20:00,28.1,7.9,30.35,North,2,0.0,255.0,42,0.00,CLR,,0.00,WeatherDisplay:10.37,2013-01-15 15:20:00,
2013-01-15 07:21:00,28.1,7.9,30.35,North,0,255.3,0.0,42,0.00,CLR,,0.00,WeatherDisplay:10.37,2013-01-15 15:21:00,
2013-01-15 07:23:00,28.1,7.9,30.35,North,0,255.3,0.0,42,0.00,CLR,,0.00,WeatherDisplay:10.37,2013-01-15 15:23:00,
2013-01-15 07:25:00,28.1,7.9,30.36,North,0,255.3,0.0,42,0.00,CLR,,0.00,WeatherDisplay:10.37,2013-01-15 15:25:00,
2013-01-15 07:26:00,28.1,7.9,30.36,North,0,255.3,0.0,42,0.00,CLR,,0.00,WeatherDisplay:10.37,2013-01-15 15:26:00,
2013-01-15 07:29:00,28.1,7.9,30.39,ENE,77,255.3,255.3,42,0.00,CLR,,0.00,WeatherDisplay:10.37,2013-01-15 15:29:00,
2013-01-15 07:30:00,28.1,7.9,30.39,NNE,29,2.0,255.0,42,0.00,CLR,,0.00,WeatherDisplay:10.37,2013-01-15 15:30:00,
2013-01-15 07:34:00,28.4,8.7,30.39,ENE,77,0.0,0.0,43,0.00,CLR,,0.00,WeatherDisplay:10.37,2013-01-15 15:34:00,
2013-01-15 07:36:00,28.5,7.8,30.39,ENE,77,0.0,0.0,41,0.00,CLR,,0.00,WeatherDisplay:10.37,2013-01-15 15:36:00,
2013-01-15 07:37:00,28.7,7.9,30.38,ENE,77,0.0,0.0,41,0.00,CLR,,0.00,WeatherDisplay:10.37,2013-01-15 15:37:00,
2013-01-15 07:39:00,29.0,7.7,30.38,ENE,77,0.0,0.0,40,0.00,CLR,,0.00,WeatherDisplay:10.37,2013-01-15 15:39:00,
2013-01-15 07:40:00,29.1,7.7,30.38,ENE,77,0.0,0.0,40,0.00,CLR,,0.00,WeatherDisplay:10.37,2013-01-15 15:40:00,
2013-01-15 07:42:00,29.4,8.0,30.39,ENE,77,0.0,0.0,40,0.00,CLR,,0.00,WeatherDisplay:10.37,2013-01-15 15:42:00,
2013-01-15 07:44:00,29.7,7.7,30.39,ENE,77,0.0,0.0,39,0.00,CLR,,0.00,WeatherDisplay:10.37,2013-01-15 15:44:00,
2013-01-15 07:48:00,30.7,7.5,30.39,ENE,77,0.0,0.0,37,0.00,CLR,,0.00,WeatherDisplay:10.37,2013-01-15 15:48:00,
2013-01-15 07:50:00,31.3,6.8,30.39,ENE,77,0.0,0.0,35,0.00,CLR,,0.00,WeatherDisplay:10.37,2013-01-15 15:50:00,
2013-01-15 07:52:00,31.9,7.3,30.39,ENE,77,0.0,0.0,35,0.00,CLR,,0.00,WeatherDisplay:10.37,2013-01-15 15:52:00,
2013-01-15 07:53:00,32.2,7.6,30.39,ENE,77,0.0,0.0,35,0.00,CLR,,0.00,WeatherDisplay:10.37,2013-01-15 15:53:00,
2013-01-15 07:55:00,32.5,6.5,30.39,ENE,77,0.0,0.0,33,0.00,CLR,,0.00,WeatherDisplay:10.37,2013-01-15 15:55:00,
2013-01-15 07:59:00,33.4,8.6,30.39,ENE,77,0.0,0.0,35,0.00,CLR,,0.00,WeatherDisplay:10.37,2013-01-15 15:59:00,
2013-01-15 08:01:00,33.8,9.0,30.39,ENE,77,0.0,0.0,35,0.00,CLR,,0.00,WeatherDisplay:10.37,2013-01-15 16:01:00,
2013-01-15 08:05:00,34.3,9.5,30.39,ENE,77,0.0,1.0,35,0.00,CLR,,0.00,WeatherDisplay:10.37,2013-01-15 16:05:00,
2013-01-15 08:06:00,34.6,9.1,30.39,ENE,77,0.0,0.0,34,0.00,CLR,,0.00,WeatherDisplay:10.37,2013-01-15 16:06:00,
2013-01-15 08:10:00,34.7,9.8,30.39,ENE,77,0.0,0.0,35,0.00,CLR,,0.00,WeatherDisplay:10.37,2013-01-15 16:10:00,
2013-01-15 08:11:00,34.7,9.8,30.39,ENE,77,0.0,0.0,35,0.00,CLR,,0.00,WeatherDisplay:10.37,2013-01-15 16:11:00,
2013-01-15 08:16:00,35.3,8.3,30.39,ENE,77,1.1,1.1,32,0.00,CLR,,0.00,WeatherDisplay:10.37,2013-01-15 16:16:00,
2013-01-15 08:17:00,35.6,7.9,30.39,ENE,77,0.0,0.0,31,0.00,CLR,,0.00,WeatherDisplay:10.37,2013-01-15 16:17:00,
2013-01-15 08:21:00,36.3,8.5,30.39,ENE,77,0.0,0.0,31,0.00,CLR,,0.00,WeatherDisplay:10.37,2013-01-15 16:21:00,
2013-01-15 08:22:00,36.5,8.7,30.39,ENE,77,0.0,0.0,31,0.00,CLR,,0.00,WeatherDisplay:10.37,2013-01-15 16:22:00,
2013-01-15 08:23:00,36.6,8.0,30.39,ENE,77,0.0,0.0,30,0.00,CLR,,0.00,WeatherDisplay:10.37,2013-01-15 16:23:00,
2013-01-15 08:26:00,37.0,6.9,30.39,ENE,77,0.0,0.0,28,0.00,CLR,,0.00,WeatherDisplay:10.37,2013-01-15 16:26:00,
2013-01-15 08:27:00,37.3,7.1,30.39,ENE,77,1.1,0.0,28,0.00,CLR,,0.00,WeatherDisplay:10.37,2013-01-15 16:27:00,
2013-01-15 08:28:00,37.6,6.6,30.39,ENE,77,0.0,0.0,27,0.00,CLR,,0.00,WeatherDisplay:10.37,2013-01-15 16:28:00,
2013-01-15 08:30:00,37.8,7.6,30.39,ENE,77,1.1,1.1,28,0.00,CLR,,0.00,WeatherDisplay:10.37,2013-01-15 16:30:00,
2013-01-15 08:32:00,38.0,6.9,30.39,ENE,75,0.0,0.0,27,0.00,CLR,,0.00,WeatherDisplay:10.37,2013-01-15 16:32:00,
2013-01-15 08:33:00,38.2,7.1,30.39,ENE,76,0.0,0.0,27,0.00,CLR,,0.00,WeatherDisplay:10.37,2013-01-15 16:33:00,
2013-01-15 08:34:00,38.3,7.2,30.39,ENE,76,0.0,0.0,27,0.00,CLR,,0.00,WeatherDisplay:10.37,2013-01-15 16:34:00,
2013-01-15 08:35:00,38.3,7.2,30.39,ENE,76,1.1,1.1,27,0.00,CLR,,0.00,WeatherDisplay:10.37,2013-01-15 16:35:00,
2013-01-15 08:38:00,38.6,6.6,30.39,East,82,1.1,1.1,26,0.00,CLR,,0.00,WeatherDisplay:10.37,2013-01-15 16:38:00,
2013-01-15 08:39:00,38.9,6.9,30.39,East,82,0.0,0.0,26,0.00,CLR,,0.00,WeatherDisplay:10.37,2013-01-15 16:39:00,
2013-01-15 08:40:00,38.8,6.8,30.39,East,79,0.0,1.0,26,0.00,CLR,,0.00,WeatherDisplay:10.37,2013-01-15 16:40:00,
2013-01-15 08:41:00,39.1,6.2,30.39,East,82,0.0,0.1,25,0.00,CLR,,0.00,WeatherDisplay:10.37,2013-01-15 16:41:00,
2013-01-15 08:43:00,39.3,6.3,30.39,East,82,0.0,0.0,25,0.00,CLR,,0.00,WeatherDisplay:10.37,2013-01-15 16:43:00,
2013-01-15 08:45:00,39.3,6.3,30.39,East,82,0.0,1.0,25,0.00,CLR,,0.00,WeatherDisplay:10.37,2013-01-15 16:45:00,
2013-01-15 08:46:00,39.5,6.5,30.38,East,82,1.1,1.1,25,0.00,CLR,,0.00,WeatherDisplay:10.37,2013-01-15 16:46:00,
2013-01-15 08:48:00,39.8,6.8,30.38,ENE,78,1.1,1.1,25,0.00,CLR,,0.00,WeatherDisplay:10.37,2013-01-15 16:48:00,
2013-01-15 08:49:00,39.8,6.8,30.38,ENE,78,1.1,1.1,25,0.00,CLR,,0.00,WeatherDisplay:10.37,2013-01-15 16:49:00,
2013-01-15 08:50:00,40.1,7.0,30.38,ENE,78,1.1,0.0,25,0.00,CLR,,0.00,WeatherDisplay:10.37,2013-01-15 16:50:00,
2013-01-15 08:52:00,40.2,6.2,30.39,ENE,77,1.1,1.1,24,0.00,CLR,,0.00,WeatherDisplay:10.37,2013-01-15 16:52:00,
2013-01-15 08:54:00,40.5,5.5,30.39,East,82,0.0,0.0,23,0.00,CLR,,0.00,WeatherDisplay:10.37,2013-01-15 16:54:00,
2013-01-15 08:55:00,40.5,5.5,30.39,East,82,0.0,0.0,23,0.00,CLR,,0.00,WeatherDisplay:10.37,2013-01-15 16:55:00,
2013-01-15 08:57:00,40.8,6.7,30.39,ENE,75,1.1,1.1,24,0.00,CLR,,0.00,WeatherDisplay:10.37,2013-01-15 16:57:00,
2013-01-15 08:58:00,40.9,4.9,30.39,ENE,75,1.1,0.0,22,0.00,CLR,,0.00,WeatherDisplay:10.37,2013-01-15 16:58:00,
2013-01-15 09:00:00,41.2,5.2,30.39,ENE,77,1.1,1.1,22,0.00,CLR,,0.00,WeatherDisplay:10.37,2013-01-15 17:00:00,
2013-01-15 09:01:00,41.2,5.2,30.39,ENE,77,1.1,1.1,22,0.00,FEW,,0.00,WeatherDisplay:10.37,2013-01-15 17:01:00,
2013-01-15 09:02:00,41.3,5.2,30.39,ENE,77,1.1,1.1,22,0.00,FEW,,0.00,WeatherDisplay:10.37,2013-01-15 17:02:00,
2013-01-15 09:05:00,41.8,4.6,30.39,ENE,60,1.1,1.1,21,0.00,FEW,,0.00,WeatherDisplay:10.37,2013-01-15 17:05:00,
2013-01-15 09:07:00,41.9,4.7,30.39,ENE,61,1.1,1.1,21,0.00,FEW,,0.00,WeatherDisplay:10.37,2013-01-15 17:07:00,
2013-01-15 09:08:00,41.9,4.7,30.39,ENE,61,1.1,0.0,21,0.00,FEW,,0.00,WeatherDisplay:10.37,2013-01-15 17:08:00,
2013-01-15 09:10:00,42.1,4.9,30.39,ENE,61,1.1,1.1,21,0.00,FEW,,0.00,WeatherDisplay:10.37,2013-01-15 17:10:00,
2013-01-15 09:12:00,42.3,4.0,30.39,ENE,63,2.3,2.3,20,0.00,FEW,,0.00,WeatherDisplay:10.37,2013-01-15 17:12:00,
2013-01-15 09:13:00,42.3,4.0,30.39,ENE,63,1.1,1.1,20,0.00,FEW,,0.00,WeatherDisplay:10.37,2013-01-15 17:13:00,
2013-01-15 09:14:00,42.5,4.2,30.39,ENE,63,1.1,1.1,20,0.00,FEW,,0.00,WeatherDisplay:10.37,2013-01-15 17:14:00,
2013-01-15 09:15:00,42.8,4.4,30.39,ENE,63,2.3,2.3,20,0.00,FEW,,0.00,WeatherDisplay:10.37,2013-01-15 17:15:00,
2013-01-15 09:18:00,43.1,4.7,30.39,NE,56,0.0,0.0,20,0.00,FEW,,0.00,WeatherDisplay:10.37,2013-01-15 17:18:00,
2013-01-15 09:19:00,43.2,4.8,30.39,NE,56,1.1,0.0,20,0.00,FEW,,0.00,WeatherDisplay:10.37,2013-01-15 17:19:00,
2013-01-15 09:20:00,43.1,4.7,30.39,ENE,61,0.0,1.0,20,0.00,FEW,,0.00,WeatherDisplay:10.37,2013-01-15 17:20:00,
2013-01-15 09:21:00,43.3,5.9,30.39,NE,56,0.0,0.0,21,0.00,FEW,,0.00,WeatherDisplay:10.37,2013-01-15 17:21:00,
2013-01-15 09:25:00,43.6,5.1,30.39,ENE,58,0.0,1.0,20,0.00,FEW,,0.00,WeatherDisplay:10.37,2013-01-15 17:25:00,
2013-01-15 09:27:00,44.2,5.6,30.39,NE,56,0.0,0.0,20,0.00,FEW,,0.00,WeatherDisplay:10.37,2013-01-15 17:27:00,
2013-01-15 09:30:00,44.6,5.9,30.39,NE,56,0.0,1.0,20,0.00,FEW,,0.00,WeatherDisplay:10.37,2013-01-15 17:30:00,
2013-01-15 09:31:00,44.9,5.1,30.39,NE,56,0.0,0.0,19,0.00,FEW,,0.00,WeatherDisplay:10.37,2013-01-15 17:31:00,
2013-01-15 09:33:00,45.4,5.5,30.39,NE,56,0.0,0.0,19,0.00,FEW,,0.00,WeatherDisplay:10.37,2013-01-15 17:33:00,
2013-01-15 09:35:00,45.8,6.9,30.39,NW,326,1.1,1.1,20,0.00,FEW,,0.00,WeatherDisplay:10.37,2013-01-15 17:35:00,
2013-01-15 09:38:00,46.4,5.1,30.39,West,270,3.5,3.5,18,0.00,FEW,,0.00,WeatherDisplay:10.37,2013-01-15 17:38:00,
2013-01-15 09:39:00,46.7,5.4,30.39,West,270,2.3,2.3,18,0.00,FEW,,0.00,WeatherDisplay:10.37,2013-01-15 17:39:00,
2013-01-15 09:40:00,46.7,5.4,30.39,West,271,3.0,3.0,18,0.00,FEW,,0.00,WeatherDisplay:10.37,2013-01-15 17:40:00,
2013-01-15 09:42:00,46.8,5.4,30.39,West,271,3.5,3.5,18,0.00,FEW,,0.00,WeatherDisplay:10.37,2013-01-15 17:42:00,
2013-01-15 09:43:00,46.8,5.4,30.39,West,276,3.5,3.5,18,0.00,FEW,,0.00,WeatherDisplay:10.37,2013-01-15 17:43:00,
2013-01-15 09:44:00,47.0,5.6,30.39,West,276,3.5,3.5,18,0.00,FEW,,0.00,WeatherDisplay:10.37,2013-01-15 17:44:00,
2013-01-15 09:45:00,47.0,5.6,30.39,West,276,3.5,3.5,18,0.00,FEW,,0.00,WeatherDisplay:10.37,2013-01-15 17:45:00,
2013-01-15 09:47:00,47.0,5.6,30.39,West,276,3.5,3.5,18,0.00,FEW,,0.00,WeatherDisplay:10.37,2013-01-15 17:47:00,
2013-01-15 09:50:00,47.0,5.6,30.39,West,275,1.0,3.0,18,0.00,FEW,,0.00,WeatherDisplay:10.37,2013-01-15 17:50:00,
2013-01-15 09:51:00,47.0,5.6,30.38,West,278,3.5,3.5,18,0.00,FEW,,0.00,WeatherDisplay:10.37,2013-01-15 17:51:00,
2013-01-15 09:54:00,47.1,5.7,30.39,West,278,1.1,1.1,18,0.00,FEW,,0.00,WeatherDisplay:10.37,2013-01-15 17:54:00,
2013-01-15 09:55:00,47.3,5.9,30.39,West,278,0.0,0.2,18,0.00,FEW,,0.00,WeatherDisplay:10.37,2013-01-15 17:55:00,
2013-01-15 09:57:00,47.3,5.9,30.39,West,278,0.0,0.1,18,0.00,FEW,,0.00,WeatherDisplay:10.37,2013-01-15 17:57:00,
2013-01-15 10:00:00,47.1,5.7,30.39,West,278,1.0,3.0,18,0.00,FEW,,0.00,WeatherDisplay:10.37,2013-01-15 18:00:00,
2013-01-15 10:01:00,47.3,4.6,30.39,West,278,2.3,2.3,17,0.00,CLR,,0.00,WeatherDisplay:10.37,2013-01-15 18:01:00,
2013-01-15 10:04:00,47.4,4.7,30.39,West,278,1.1,0.0,17,0.00,CLR,,0.00,WeatherDisplay:10.37,2013-01-15 18:04:00,
2013-01-15 10:05:00,47.6,4.9,30.39,West,278,1.1,1.1,17,0.00,CLR,,0.00,WeatherDisplay:10.37,2013-01-15 18:05:00,
2013-01-15 10:09:00,48.0,6.4,30.38,WNW,287,1.1,1.1,18,0.00,CLR,,0.00,WeatherDisplay:10.37,2013-01-15 18:09:00,
2013-01-15 10:10:00,48.0,6.5,30.38,West,280,0.0,2.0,18,0.00,CLR,,0.00,WeatherDisplay:10.37,2013-01-15 18:10:00,
2013-01-15 10:12:00,48.5,5.6,30.37,WNW,287,3.5,3.5,17,0.00,CLR,,0.00,WeatherDisplay:10.37,2013-01-15 18:12:00,
2013-01-15 10:15:00,48.7,5.7,30.37,West,272,1.0,5.0,17,0.00,CLR,,0.00,WeatherDisplay:10.37,2013-01-15 18:15:00,
2013-01-15 10:16:00,48.9,5.9,30.37,WSW,248,2.0,2.0,17,0.00,CLR,,0.00,WeatherDisplay:10.37,2013-01-15 18:16:00,
2013-01-15 10:18:00,48.9,5.9,30.37,West,276,2.3,2.3,17,0.00,CLR,,0.00,WeatherDisplay:10.37,2013-01-15 18:18:00,
2013-01-15 10:20:00,49.2,4.8,30.36,West,262,1.1,1.1,16,0.00,CLR,,0.00,WeatherDisplay:10.37,2013-01-15 18:20:00,
2013-01-15 10:21:00,49.4,7.6,30.36,West,262,3.5,3.5,18,0.00,CLR,,0.00,WeatherDisplay:10.37,2013-01-15 18:21:00,
2013-01-15 10:23:00,49.6,7.8,30.36,West,262,2.3,2.3,18,0.00,CLR,,0.00,WeatherDisplay:10.37,2013-01-15 18:23:00,
2013-01-15 10:24:00,49.8,7.9,30.36,West,263,3.5,3.5,18,0.00,CLR,,0.00,WeatherDisplay:10.37,2013-01-15 18:24:00,
2013-01-15 10:26:00,50.1,8.2,30.36,WSW,248,3.5,3.5,18,0.00,CLR,,0.00,WeatherDisplay:10.37,2013-01-15 18:26:00,
2013-01-15 10:28:00,50.4,7.1,30.35,West,267,2.3,2.3,17,0.00,CLR,,0.00,WeatherDisplay:10.37,2013-01-15 18:28:00,
2013-01-15 10:29:00,50.5,7.2,30.35,West,265,2.3,2.3,17,0.00,CLR,,0.00,WeatherDisplay:10.37,2013-01-15 18:29:00,
2013-01-15 10:33:00,51.1,5.0,30.35,West,265,2.3,0.0,15,0.00,CLR,,0.00,WeatherDisplay:10.37,2013-01-15 18:33:00,
2013-01-15 10:34:00,51.3,5.1,30.35,West,263,0.0,0.1,15,0.00,CLR,,0.00,WeatherDisplay:10.37,2013-01-15 18:34:00,
2013-01-15 10:35:00,51.2,5.0,30.35,West,261,0.0,2.0,15,0.00,CLR,,0.00,WeatherDisplay:10.37,2013-01-15 18:35:00,
2013-01-15 10:40:00,51.7,3.9,30.35,West,263,3.5,3.5,14,0.00,CLR,,0.00,WeatherDisplay:10.37,2013-01-15 18:40:00,
2013-01-15 10:44:00,51.9,4.1,30.35,West,266,3.5,3.5,14,0.00,CLR,,0.00,WeatherDisplay:10.37,2013-01-15 18:44:00,
2013-01-15 10:45:00,51.9,2.5,30.34,West,266,0.0,0.0,13,0.00,CLR,,0.00,WeatherDisplay:10.37,2013-01-15 18:45:00,
2013-01-15 10:48:00,51.9,4.1,30.34,West,266,0.0,0.0,14,0.00,CLR,,0.00,WeatherDisplay:10.37,2013-01-15 18:48:00,
2013-01-15 10:49:00,52.0,5.7,30.34,West,266,1.1,1.1,15,0.00,CLR,,0.00,WeatherDisplay:10.37,2013-01-15 18:49:00,
2013-01-15 10:50:00,52.0,5.7,30.33,West,266,0.0,2.0,15,0.00,CLR,,0.00,WeatherDisplay:10.37,2013-01-15 18:50:00,
2013-01-15 10:51:00,52.2,2.7,30.33,West,264,2.3,2.3,13,0.00,CLR,,0.00,WeatherDisplay:10.37,2013-01-15 18:51:00,
2013-01-15 10:55:00,51.9,2.5,30.33,West,272,0.0,2.0,13,0.00,CLR,,0.00,WeatherDisplay:10.37,2013-01-15 18:55:00,
2013-01-15 10:56:00,51.7,2.3,30.33,WNW,290,0.0,0.0,13,0.00,CLR,,0.00,WeatherDisplay:10.37,2013-01-15 18:56:00,
2013-01-15 11:00:00,51.3,3.6,30.33,West,264,3.5,3.5,14,0.00,CLR,,0.00,WeatherDisplay:10.37,2013-01-15 19:00:00,
2013-01-15 11:01:00,51.3,3.6,30.33,West,264,4.6,4.6,14,0.00,CLR,,0.00,WeatherDisplay:10.37,2013-01-15 19:01:00,
2013-01-15 11:02:00,51.4,3.7,30.33,West,265,2.3,2.3,14,0.00,CLR,,0.00,WeatherDisplay:10.37,2013-01-15 19:02:00,
2013-01-15 11:03:00,51.4,3.7,30.33,West,265,1.1,1.1,14,0.00,CLR,,0.00,WeatherDisplay:10.37,2013-01-15 19:03:00,
2013-01-15 11:06:00,51.7,2.3,30.32,West,271,3.0,3.0,13,0.00,CLR,,0.00,WeatherDisplay:10.37,2013-01-15 19:06:00,
2013-01-15 11:08:00,51.7,3.9,30.32,West,271,1.1,1.1,14,0.00,CLR,,0.00,WeatherDisplay:10.37,2013-01-15 19:08:00,
2013-01-15 11:10:00,51.7,3.9,30.32,West,268,0.0,4.0,14,0.00,CLR,,0.00,WeatherDisplay:10.37,2013-01-15 19:10:00,
2013-01-15 11:12:00,51.9,4.1,30.32,West,271,1.1,1.1,14,0.00,CLR,,0.00,WeatherDisplay:10.37,2013-01-15 19:12:00,
2013-01-15 11:13:00,51.9,4.1,30.31,West,271,1.1,0.0,14,0.00,CLR,,0.00,WeatherDisplay:10.37,2013-01-15 19:13:00,
2013-01-15 11:15:00,52.3,4.4,30.31,WSW,241,2.0,2.0,14,0.00,CLR,,0.00,WeatherDisplay:10.37,2013-01-15 19:15:00,
2013-01-15 11:16:00,52.5,4.6,30.31,WSW,256,4.6,4.6,14,0.00,CLR,,0.00,WeatherDisplay:10.37,2013-01-15 19:16:00,
2013-01-15 11:19:00,52.8,3.2,30.31,WSW,256,2.3,2.3,13,0.00,CLR,,0.00,WeatherDisplay:10.37,2013-01-15 19:19:00,
2013-01-15 11:21:00,52.9,4.9,30.31,West,272,1.1,1.1,14,0.00,CLR,,0.00,WeatherDisplay:10.37,2013-01-15 19:21:00,
2013-01-15 11:22:00,53.1,3.5,30.31,WNW,295,3.5,3.5,13,0.00,CLR,,0.00,WeatherDisplay:10.37,2013-01-15 19:22:00,
2013-01-15 11:24:00,53.1,3.5,30.31,WNW,290,3.5,3.5,13,0.00,CLR,,0.00,WeatherDisplay:10.37,2013-01-15 19:24:00,
2013-01-15 11:26:00,52.9,4.9,30.31,WNW,294,1.0,0.0,14,0.00,CLR,,0.00,WeatherDisplay:10.37,2013-01-15 19:26:00,
2013-01-15 11:28:00,52.9,4.9,30.31,WNW,298,5.8,5.8,14,0.00,CLR,,0.00,WeatherDisplay:10.37,2013-01-15 19:28:00,
2013-01-15 11:29:00,52.8,3.2,30.31,WSW,254,5.8,5.8,13,0.00,CLR,,0.00,WeatherDisplay:10.37,2013-01-15 19:29:00,
2013-01-15 11:32:00,52.6,3.1,30.31,West,272,2.0,2.0,13,0.00,CLR,,0.00,WeatherDisplay:10.37,2013-01-15 19:32:00,
2013-01-15 11:34:00,52.6,4.7,30.31,West,276,3.5,3.5,14,0.00,CLR,,0.00,WeatherDisplay:10.37,2013-01-15 19:34:00,
2013-01-15 11:35:00,52.6,4.7,30.31,West,276,3.5,3.5,14,0.00,CLR,,0.00,WeatherDisplay:10.37,2013-01-15 19:35:00,
2013-01-15 11:37:00,52.5,3.0,30.31,West,276,4.6,4.6,13,0.00,CLR,,0.00,WeatherDisplay:10.37,2013-01-15 19:37:00,
2013-01-15 11:40:00,52.6,3.1,30.31,West,269,0.0,5.0,13,0.00,CLR,,0.00,WeatherDisplay:10.37,2013-01-15 19:40:00,
2013-01-15 11:43:00,52.9,4.9,30.30,SSE,163,3.5,3.5,14,0.00,CLR,,0.00,WeatherDisplay:10.37,2013-01-15 19:43:00,
2013-01-15 11:44:00,53.1,5.1,30.30,WSW,257,1.1,1.1,14,0.00,CLR,,0.00,WeatherDisplay:10.37,2013-01-15 19:44:00,
2013-01-15 11:47:00,53.3,5.2,30.30,West,278,3.5,3.5,14,0.00,CLR,,0.00,WeatherDisplay:10.37,2013-01-15 19:47:00,
2013-01-15 11:49:00,53.5,3.8,30.30,WNW,282,3.5,0.0,13,0.00,CLR,,0.00,WeatherDisplay:10.37,2013-01-15 19:49:00,
2013-01-15 11:51:00,53.8,5.6,30.31,WNW,282,1.1,1.1,14,0.00,CLR,,0.00,WeatherDisplay:10.37,2013-01-15 19:51:00,
2013-01-15 11:52:00,53.9,5.7,30.31,WNW,282,1.1,1.1,14,0.00,CLR,,0.00,WeatherDisplay:10.37,2013-01-15 19:52:00,
2013-01-15 11:56:00,54.4,4.5,30.31,West,271,1.1,1.1,13,0.00,CLR,,0.00,WeatherDisplay:10.37,2013-01-15 19:56:00,
2013-01-15 11:57:00,54.5,6.2,30.31,West,265,5.0,5.0,14,0.00,CLR,,0.00,WeatherDisplay:10.37,2013-01-15 19:57:00,
2013-01-15 11:59:00,54.4,4.5,30.31,WNW,293,3.5,3.5,13,0.00,CLR,,0.00,WeatherDisplay:10.37,2013-01-15 19:59:00,
2013-01-15 12:01:00,54.2,2.6,30.31,WNW,285,4.6,4.6,12,0.00,SCT,,0.00,WeatherDisplay:10.37,2013-01-15 20:01:00,
2013-01-15 12:03:00,54.2,4.3,30.31,WNW,285,0.0,0.0,13,0.00,SCT,,0.00,WeatherDisplay:10.37,2013-01-15 20:03:00,
2013-01-15 12:05:00,54.2,4.3,30.31,WNW,285,0.0,0.0,13,0.00,SCT,,0.00,WeatherDisplay:10.37,2013-01-15 20:05:00,
2013-01-15 12:09:00,54.2,4.3,30.30,East,91,3.5,3.5,13,0.00,SCT,,0.00,WeatherDisplay:10.37,2013-01-15 20:09:00,
2013-01-15 12:10:00,54.2,5.9,30.30,East,91,1.1,0.0,14,0.00,SCT,,0.00,WeatherDisplay:10.37,2013-01-15 20:10:00,
2013-01-15 12:15:00,54.5,6.2,30.30,ESE,110,1.0,3.0,14,0.00,SCT,,0.00,WeatherDisplay:10.37,2013-01-15 20:15:00,
2013-01-15 12:16:00,54.5,4.6,30.29,West,265,3.5,3.5,13,0.00,SCT,,0.00,WeatherDisplay:10.37,2013-01-15 20:16:00,
2013-01-15 12:20:00,54.7,4.7,30.28,SW,229,2.3,2.3,13,0.00,SCT,,0.00,WeatherDisplay:10.37,2013-01-15 20:20:00,
2013-01-15 12:21:00,54.8,6.4,30.28,SW,229,2.3,2.3,14,0.00,SCT,,0.00,WeatherDisplay:10.37,2013-01-15 20:21:00,
2013-01-15 12:23:00,54.8,6.4,30.28,West,277,4.6,4.6,14,0.00,SCT,,0.00,WeatherDisplay:10.37,2013-01-15 20:23:00,
2013-01-15 12:26:00,54.8,6.4,30.28,West,277,1.1,1.1,14,0.00,SCT,,0.00,WeatherDisplay:10.37,2013-01-15 20:26:00,
2013-01-15 12:27:00,54.8,6.4,30.28,West,277,1.1,1.1,14,0.00,SCT,,0.00,WeatherDisplay:10.37,2013-01-15 20:27:00,
2013-01-15 12:28:00,54.8,6.4,30.28,WNW,291,3.5,3.5,14,0.00,SCT,,0.00,WeatherDisplay:10.37,2013-01-15 20:28:00,
2013-01-15 12:32:00,55.1,5.0,30.28,West,281,0.0,0.0,13,0.00,SCT,,0.00,WeatherDisplay:10.37,2013-01-15 20:32:00,
2013-01-15 12:33:00,55.1,5.0,30.28,West,281,0.0,0.0,13,0.00,SCT,,0.00,WeatherDisplay:10.37,2013-01-15 20:33:00,
2013-01-15 12:38:00,54.7,6.3,30.28,WNW,293,0.0,0.0,14,0.00,SCT,,0.00,WeatherDisplay:10.37,2013-01-15 20:38:00,
2013-01-15 12:39:00,54.5,6.2,30.28,WNW,293,0.0,0.0,14,0.00,SCT,,0.00,WeatherDisplay:10.37,2013-01-15 20:39:00,
2013-01-15 12:40:00,54.5,6.2,30.28,WNW,287,0.0,3.0,14,0.00,SCT,,0.00,WeatherDisplay:10.37,2013-01-15 20:40:00,
2013-01-15 12:43:00,54.5,6.2,30.28,SE,136,2.3,2.3,14,0.00,SCT,,0.00,WeatherDisplay:10.37,2013-01-15 20:43:00,
2013-01-15 12:45:00,54.7,6.3,30.28,SE,136,0.0,0.0,14,0.00,SCT,,0.00,WeatherDisplay:10.37,2013-01-15 20:45:00,
2013-01-15 12:49:00,55.0,6.6,30.26,ESE,121,1.1,1.1,14,0.00,SCT,,0.00,WeatherDisplay:10.37,2013-01-15 20:49:00,
2013-01-15 12:51:00,55.0,6.6,30.26,East,101,1.1,1.1,14,0.00,SCT,,0.00,WeatherDisplay:10.37,2013-01-15 20:51:00,
2013-01-15 12:52:00,55.0,6.6,30.26,ESE,116,2.0,2.0,14,0.00,SCT,,0.00,WeatherDisplay:10.37,2013-01-15 20:52:00,
2013-01-15 12:54:00,55.0,6.6,30.26,SE,141,3.5,3.5,14,0.00,SCT,,0.00,WeatherDisplay:10.37,2013-01-15 20:54:00,
2013-01-15 12:55:00,55.0,6.6,30.26,ESE,122,1.0,3.0,14,0.00,SCT,,0.00,WeatherDisplay:10.37,2013-01-15 20:55:00,
2013-01-15 12:56:00,55.0,6.6,30.26,SSE,148,3.5,3.5,14,0.00,SCT,,0.00,WeatherDisplay:10.37,2013-01-15 20:56:00,
2013-01-15 12:59:00,55.1,8.2,30.26,West,281,3.5,3.5,15,0.00,SCT,,0.00,WeatherDisplay:10.37,2013-01-15 20:59:00,
2013-01-15 13:00:00,55.1,8.2,30.26,WNW,297,3.0,3.0,15,0.00,SCT,,0.00,WeatherDisplay:10.37,2013-01-15 21:00:00,
2013-01-15 13:02:00,55.3,8.4,30.26,WNW,285,3.5,3.5,15,0.00,SCT,,0.00,WeatherDisplay:10.37,2013-01-15 21:02:00,
2013-01-15 13:03:00,55.4,8.4,30.26,West,269,3.5,3.5,15,0.00,SCT,,0.00,WeatherDisplay:10.37,2013-01-15 21:03:00,
2013-01-15 13:05:00,55.4,8.4,30.26,West,269,2.3,2.3,15,0.00,SCT,,0.00,WeatherDisplay:10.37,2013-01-15 21:05:00,
2013-01-15 13:10:00,55.3,8.4,30.26,NNW,339,1.1,1.1,15,0.00,SCT,,0.00,WeatherDisplay:10.37,2013-01-15 21:10:00,
2013-01-15 13:11:00,55.3,8.4,30.26,NNW,339,1.1,1.1,15,0.00,SCT,,0.00,WeatherDisplay:10.37,2013-01-15 21:11:00,
2013-01-15 13:15:00,55.0,9.6,30.26,NNW,347,0.0,0.1,16,0.00,SCT,,0.00,WeatherDisplay:10.37,2013-01-15 21:15:00,
2013-01-15 13:16:00,55.0,9.6,30.26,NNW,347,2.3,2.3,16,0.00,SCT,,0.00,WeatherDisplay:10.37,2013-01-15 21:16:00,
2013-01-15 13:20:00,55.1,8.2,30.25,NW,322,2.0,5.0,15,0.00,SCT,,0.00,WeatherDisplay:10.37,2013-01-15 21:20:00,
2013-01-15 13:21:00,55.4,8.4,30.25,NE,53,1.1,1.1,15,0.00,SCT,,0.00,WeatherDisplay:10.37,2013-01-15 21:21:00,
2013-01-15 13:22:00,55.4,8.4,30.25,NE,53,2.3,2.3,15,0.00,SCT,,0.00,WeatherDisplay:10.37,2013-01-15 21:22:00,
2013-01-15 13:23:00,55.4,8.4,30.25,NE,55,1.1,1.1,15,0.00,SCT,,0.00,WeatherDisplay:10.37,2013-01-15 21:23:00,
2013-01-15 13:27:00,56.0,8.9,30.25,West,271,3.5,3.5,15,0.00,SCT,,0.00,WeatherDisplay:10.37,2013-01-15 21:27:00,
2013-01-15 13:32:00,56.7,9.5,30.24,SSE,158,0.0,0.0,15,0.00,SCT,,0.00,WeatherDisplay:10.37,2013-01-15 21:32:00,
2013-01-15 13:33:00,56.7,9.5,30.24,SSE,158,1.1,0.0,15,0.00,SCT,,0.00,WeatherDisplay:10.37,2013-01-15 21:33:00,
2013-01-15 13:36:00,57.0,8.2,30.24,ESE,117,2.3,0.0,14,0.00,SCT,,0.00,WeatherDisplay:10.37,2013-01-15 21:36:00,
2013-01-15 13:37:00,57.0,9.7,30.24,ESE,117,0.0,0.1,15,0.00,SCT,,0.00,WeatherDisplay:10.37,2013-01-15 21:37:00,
2013-01-15 13:38:00,57.2,9.9,30.24,ESE,117,1.1,1.1,15,0.00,SCT,,0.00,WeatherDisplay:10.37,2013-01-15 21:38:00,
2013-01-15 13:41:00,57.3,10.0,30.24,ESE,118,0.0,0.0,15,0.00,SCT,,0.00,WeatherDisplay:10.37,2013-01-15 21:41:00,
2013-01-15 13:43:00,57.5,10.1,30.24,SW,224,4.6,4.6,15,0.00,SCT,,0.00,WeatherDisplay:10.37,2013-01-15 21:43:00,
2013-01-15 13:45:00,57.5,8.6,30.24,South,169,3.5,3.5,14,0.00,SCT,,0.00,WeatherDisplay:10.37,2013-01-15 21:45:00,
2013-01-15 13:48:00,56.9,9.6,30.24,ESE,120,3.5,3.5,15,0.00,SCT,,0.00,WeatherDisplay:10.37,2013-01-15 21:48:00,
2013-01-15 13:51:00,56.5,9.3,30.24,ESE,120,0.0,0.0,15,0.00,SCT,,0.00,WeatherDisplay:10.37,2013-01-15 21:51:00,
2013-01-15 13:53:00,56.5,9.3,30.24,South,174,3.5,3.5,15,0.00,SCT,,0.00,WeatherDisplay:10.37,2013-01-15 21:53:00,
2013-01-15 13:56:00,56.5,9.3,30.24,South,177,3.5,3.5,15,0.00,SCT,,0.00,WeatherDisplay:10.37,2013-01-15 21:56:00,
2013-01-15 14:00:00,56.5,9.3,30.24,South,173,0.0,3.0,15,0.00,SCT,,0.00,WeatherDisplay:10.37,2013-01-15 22:00:00,
2013-01-15 14:01:00,56.6,9.4,30.24,South,175,0.0,0.0,15,0.00,FEW,,0.00,WeatherDisplay:10.37,2013-01-15 22:01:00,
2013-01-15 14:02:00,56.7,9.5,30.24,South,175,1.1,0.0,15,0.00,FEW,,0.00,WeatherDisplay:10.37,2013-01-15 22:02:00,
2013-01-15 14:05:00,56.7,9.5,30.24,South,174,0.0,3.0,15,0.00,FEW,,0.00,WeatherDisplay:10.37,2013-01-15 22:05:00,
2013-01-15 14:07:00,56.7,9.5,30.24,South,176,1.1,0.0,15,0.00,FEW,,0.00,WeatherDisplay:10.37,2013-01-15 22:07:00,
2013-01-15 14:10:00,56.7,9.5,30.24,ESE,116,1.1,0.0,15,0.00,FEW,,0.00,WeatherDisplay:10.37,2013-01-15 22:10:00,
2013-01-15 14:12:00,56.9,9.6,30.24,NNE,23,1.1,1.1,15,0.00,FEW,,0.00,WeatherDisplay:10.37,2013-01-15 22:12:00,
2013-01-15 14:15:00,56.7,9.5,30.24,ESE,102,1.0,3.0,15,0.00,FEW,,0.00,WeatherDisplay:10.37,2013-01-15 22:15:00,
2013-01-15 14:16:00,56.7,9.5,30.24,ENE,74,3.5,0.0,15,0.00,FEW,,0.00,WeatherDisplay:10.37,2013-01-15 22:16:00,
2013-01-15 14:18:00,56.6,10.9,30.24,ENE,74,0.0,0.0,16,0.00,FEW,,0.00,WeatherDisplay:10.37,2013-01-15 22:18:00,
2013-01-15 14:19:00,56.7,10.9,30.24,ENE,74,0.0,0.0,16,0.00,FEW,,0.00,WeatherDisplay:10.37,2013-01-15 22:19:00,
2013-01-15 14:21:00,56.7,10.9,30.24,East,84,2.0,2.0,16,0.00,FEW,,0.00,WeatherDisplay:10.37,2013-01-15 22:21:00,
2013-01-15 14:22:00,56.6,9.4,30.24,East,84,2.3,2.3,15,0.00,FEW,,0.00,WeatherDisplay:10.37,2013-01-15 22:22:00,
2013-01-15 14:27:00,56.5,10.8,30.24,SSE,163,0.0,0.0,16,0.00,FEW,,0.00,WeatherDisplay:10.37,2013-01-15 22:27:00,
2013-01-15 14:28:00,56.3,10.6,30.24,SSE,163,1.1,1.1,16,0.00,FEW,,0.00,WeatherDisplay:10.37,2013-01-15 22:28:00,
2013-01-15 14:30:00,56.3,10.6,30.24,SE,142,1.1,0.0,16,0.00,FEW,,0.00,WeatherDisplay:10.37,2013-01-15 22:30:00,
2013-01-15 14:33:00,56.2,10.5,30.24,SSE,165,1.1,0.0,16,0.00,FEW,,0.00,WeatherDisplay:10.37,2013-01-15 22:33:00,
2013-01-15 14:34:00,56.2,10.5,30.24,SSE,165,0.0,0.0,16,0.00,FEW,,0.00,WeatherDisplay:10.37,2013-01-15 22:34:00,
2013-01-15 14:35:00,56.0,10.4,30.24,SSE,165,0.0,0.0,16,0.00,FEW,,0.00,WeatherDisplay:10.37,2013-01-15 22:35:00,
2013-01-15 14:39:00,56.0,10.4,30.24,ESE,122,3.5,3.5,16,0.00,FEW,,0.00,WeatherDisplay:10.37,2013-01-15 22:39:00,
2013-01-15 14:40:00,55.9,10.3,30.24,ESE,122,3.5,3.5,16,0.00,FEW,,0.00,WeatherDisplay:10.37,2013-01-15 22:40:00,
2013-01-15 14:41:00,55.7,10.1,30.24,ESE,122,0.0,0.0,16,0.00,FEW,,0.00,WeatherDisplay:10.37,2013-01-15 22:41:00,
2013-01-15 14:44:00,55.7,10.1,30.24,ESE,122,0.0,0.0,16,0.00,FEW,,0.00,WeatherDisplay:10.37,2013-01-15 22:44:00,
2013-01-15 14:46:00,55.7,11.5,30.24,SSE,158,2.3,2.3,17,0.00,FEW,,0.00,WeatherDisplay:10.37,2013-01-15 22:46:00,
2013-01-15 14:49:00,55.7,11.5,30.24,ESE,118,0.0,0.0,17,0.00,FEW,,0.00,WeatherDisplay:10.37,2013-01-15 22:49:00,
2013-01-15 14:50:00,55.8,11.5,30.24,SE,126,0.0,2.0,17,0.00,FEW,,0.00,WeatherDisplay:10.37,2013-01-15 22:50:00,
2013-01-15 14:51:00,55.9,11.6,30.24,East,86,2.0,2.0,17,0.00,FEW,,0.00,WeatherDisplay:10.37,2013-01-15 22:51:00,
2013-01-15 14:55:00,56.0,11.7,30.24,ESE,112,1.1,1.1,17,0.00,FEW,,0.00,WeatherDisplay:10.37,2013-01-15 22:55:00,
2013-01-15 14:56:00,56.0,11.7,30.24,ESE,112,0.0,0.0,17,0.00,FEW,,0.00,WeatherDisplay:10.37,2013-01-15 22:56:00,
2013-01-15 14:58:00,56.0,11.7,30.24,SSE,152,3.5,3.5,17,0.00,FEW,,0.00,WeatherDisplay:10.37,2013-01-15 22:58:00,
2013-01-15 15:00:00,56.0,11.7,30.24,SE,127,2.0,3.0,17,0.00,FEW,,0.00,WeatherDisplay:10.37,2013-01-15 23:00:00,
2013-01-15 15:02:00,56.0,11.7,30.24,West,280,0.0,0.4,17,0.00,FEW,,0.00,WeatherDisplay:10.37,2013-01-15 23:02:00,
2013-01-15 15:05:00,56.0,11.7,30.24,West,280,2.3,0.0,17,0.00,FEW,,0.00,WeatherDisplay:10.37,2013-01-15 23:05:00,
2013-01-15 15:06:00,56.0,11.7,30.24,West,280,0.0,0.0,17,0.00,FEW,,0.00,WeatherDisplay:10.37,2013-01-15 23:06:00,
2013-01-15 15:08:00,56.0,11.7,30.24,West,280,2.3,2.3,17,0.00,FEW,,0.00,WeatherDisplay:10.37,2013-01-15 23:08:00,
2013-01-15 15:12:00,56.2,11.9,30.24,West,280,2.3,2.3,17,0.00,FEW,,0.00,WeatherDisplay:10.37,2013-01-15 23:12:00,
2013-01-15 15:14:00,56.3,12.0,30.24,West,280,1.1,1.1,17,0.00,FEW,,0.00,WeatherDisplay:10.37,2013-01-15 23:14:00,
2013-01-15 15:15:00,56.3,12.0,30.24,West,280,0.0,0.0,17,0.00,FEW,,0.00,WeatherDisplay:10.37,2013-01-15 23:15:00,
2013-01-15 15:17:00,56.5,12.1,30.24,South,176,3.5,3.5,17,0.00,FEW,,0.00,WeatherDisplay:10.37,2013-01-15 23:17:00,
2013-01-15 15:19:00,56.5,12.1,30.24,SSE,159,1.1,1.1,17,0.00,FEW,,0.00,WeatherDisplay:10.37,2013-01-15 23:19:00,
2013-01-15 15:20:00,56.5,12.1,30.24,SW,233,0.0,3.0,17,0.00,FEW,,0.00,WeatherDisplay:10.37,2013-01-15 23:20:00,
2013-01-15 15:22:00,56.5,12.1,30.24,SSE,159,1.1,0.0,17,0.00,FEW,,0.00,WeatherDisplay:10.37,2013-01-15 23:22:00,
2013-01-15 15:24:00,56.5,12.1,30.24,SSE,159,0.0,0.0,17,0.00,FEW,,0.00,WeatherDisplay:10.37,2013-01-15 23:24:00,
2013-01-15 15:25:00,56.5,12.1,30.24,SSE,168,0.0,1.0,17,0.00,FEW,,0.00,WeatherDisplay:10.37,2013-01-15 23:25:00,
2013-01-15 15:28:00,56.5,12.1,30.24,ESE,123,1.1,1.1,17,0.00,FEW,,0.00,WeatherDisplay:10.37,2013-01-15 23:28:00,
2013-01-15 15:29:00,56.5,12.1,30.24,SE,127,1.1,0.0,17,0.00,FEW,,0.00,WeatherDisplay:10.37,2013-01-15 23:29:00,
2013-01-15 15:31:00,56.5,13.4,30.24,SE,127,1.1,1.1,18,0.00,FEW,,0.00,WeatherDisplay:10.37,2013-01-15 23:31:00,
2013-01-15 15:34:00,56.6,13.5,30.24,SSW,199,1.1,0.0,18,0.00,FEW,,0.00,WeatherDisplay:10.37,2013-01-15 23:34:00,
2013-01-15 15:35:00,56.6,13.5,30.24,SSE,162,0.0,2.0,18,0.00,FEW,,0.00,WeatherDisplay:10.37,2013-01-15 23:35:00,
2013-01-15 15:37:00,56.6,13.5,30.24,South,191,0.0,0.0,18,0.00,FEW,,0.00,WeatherDisplay:10.37,2013-01-15 23:37:00,
2013-01-15 15:40:00,56.6,12.2,30.24,ESE,119,1.0,1.0,17,0.00,FEW,,0.00,WeatherDisplay:10.37,2013-01-15 23:40:00,
2013-01-15 15:41:00,56.6,12.2,30.24,ESE,119,2.3,2.3,17,0.00,FEW,,0.00,WeatherDisplay:10.37,2013-01-15 23:41:00,
2013-01-15 15:42:00,56.6,12.2,30.24,ESE,119,1.1,0.0,17,0.00,FEW,,0.00,WeatherDisplay:10.37,2013-01-15 23:42:00,
2013-01-15 15:44:00,56.6,13.5,30.24,SSE,166,1.1,1.1,18,0.00,FEW,,0.00,WeatherDisplay:10.37,2013-01-15 23:44:00,
2013-01-15 15:46:00,56.6,12.2,30.24,SSE,166,3.5,3.5,17,0.00,FEW,,0.00,WeatherDisplay:10.37,2013-01-15 23:46:00,
2013-01-15 15:48:00,56.6,12.2,30.24,South,179,3.5,0.0,17,0.00,FEW,,0.00,WeatherDisplay:10.37,2013-01-15 23:48:00,
2013-01-15 15:51:00,56.6,12.2,30.24,SSE,147,3.5,3.5,17,0.00,FEW,,0.00,WeatherDisplay:10.37,2013-01-15 23:51:00,
2013-01-15 15:52:00,56.6,12.2,30.24,SE,143,1.1,1.1,17,0.00,FEW,,0.00,WeatherDisplay:10.37,2013-01-15 23:52:00,
2013-01-15 15:55:00,56.6,12.2,30.24,SSE,160,0.0,3.0,17,0.00,FEW,,0.00,WeatherDisplay:10.37,2013-01-15 23:55:00,
2013-01-15 15:56:00,56.6,12.2,30.24,SE,143,0.0,0.0,17,0.00,FEW,,0.00,WeatherDisplay:10.37,2013-01-15 23:56:00,
2013-01-15 15:57:00,56.6,12.2,30.24,SSE,148,1.1,1.1,17,0.00,FEW,,0.00,WeatherDisplay:10.37,2013-01-15 23:57:00,
2013-01-15 16:02:00,56.6,13.5,30.24,WNW,282,1.1,1.1,18,0.00,FEW,,0.00,WeatherDisplay:10.37,2013-01-16 00:02:00,
2013-01-15 16:03:00,56.6,13.5,30.24,WNW,282,0.0,0.0,18,0.00,FEW,,0.00,WeatherDisplay:10.37,2013-01-16 00:03:00,
2013-01-15 16:04:00,56.6,12.2,30.24,WNW,282,0.0,0.0,17,0.00,FEW,,0.00,WeatherDisplay:10.37,2013-01-16 00:04:00,
2013-01-15 16:08:00,56.7,13.6,30.24,WNW,282,0.0,0.0,18,0.00,FEW,,0.00,WeatherDisplay:10.37,2013-01-16 00:08:00,
2013-01-15 16:09:00,56.7,13.6,30.24,WNW,282,0.0,0.0,18,0.00,FEW,,0.00,WeatherDisplay:10.37,2013-01-16 00:09:00,
2013-01-15 16:10:00,56.7,13.6,30.24,West,277,0.0,2.0,18,0.00,FEW,,0.00,WeatherDisplay:10.37,2013-01-16 00:10:00,
2013-01-15 16:14:00,56.9,13.8,30.24,WNW,282,0.0,0.2,18,0.00,FEW,,0.00,WeatherDisplay:10.37,2013-01-16 00:14:00,
2013-01-15 16:15:00,56.9,13.8,30.24,WNW,282,0.0,2.0,18,0.00,FEW,,0.00,WeatherDisplay:10.37,2013-01-16 00:15:00,
2013-01-15 16:20:00,56.7,13.6,30.24,WNW,282,0.0,0.0,18,0.00,FEW,,0.00,WeatherDisplay:10.37,2013-01-16 00:20:00,
2013-01-15 16:23:00,56.7,12.3,30.24,WNW,282,0.0,0.0,17,0.00,FEW,,0.00,WeatherDisplay:10.37,2013-01-16 00:23:00,
2013-01-15 16:25:00,56.7,13.6,30.24,WNW,282,0.0,0.0,18,0.00,FEW,,0.00,WeatherDisplay:10.37,2013-01-16 00:25:00,
2013-01-15 16:27:00,56.7,13.6,30.25,West,268,1.1,0.0,18,0.00,FEW,,0.00,WeatherDisplay:10.37,2013-01-16 00:27:00,
2013-01-15 16:29:00,56.6,13.5,30.25,West,268,0.0,0.0,18,0.00,FEW,,0.00,WeatherDisplay:10.37,2013-01-16 00:29:00,
2013-01-15 16:33:00,56.6,13.5,30.25,West,268,0.0,0.0,18,0.00,FEW,,0.00,WeatherDisplay:10.37,2013-01-16 00:33:00,
2013-01-15 16:35:00,56.5,13.4,30.25,West,268,0.0,0.0,18,0.00,FEW,,0.00,WeatherDisplay:10.37,2013-01-16 00:35:00,
2013-01-15 16:36:00,56.5,13.4,30.24,West,268,0.0,0.0,18,0.00,FEW,,0.00,WeatherDisplay:10.37,2013-01-16 00:36:00,
2013-01-15 16:39:00,56.5,13.4,30.25,West,268,0.0,0.0,18,0.00,FEW,,0.00,WeatherDisplay:10.37,2013-01-16 00:39:00,
2013-01-15 16:40:00,56.4,13.4,30.25,West,268,0.0,0.0,18,0.00,FEW,,0.00,WeatherDisplay:10.37,2013-01-16 00:40:00,
2013-01-15 16:42:00,56.2,15.6,30.25,West,268,0.0,0.0,20,0.00,FEW,,0.00,WeatherDisplay:10.37,2013-01-16 00:42:00,
2013-01-15 16:44:00,56.0,15.4,30.25,West,268,0.0,0.0,20,0.00,FEW,,0.00,WeatherDisplay:10.37,2013-01-16 00:44:00,
2013-01-15 16:45:00,56.0,15.4,30.25,West,268,0.0,0.0,20,0.00,FEW,,0.00,WeatherDisplay:10.37,2013-01-16 00:45:00,
2013-01-15 16:48:00,55.7,15.2,30.25,West,268,0.0,0.0,20,0.00,FEW,,0.00,WeatherDisplay:10.37,2013-01-16 00:48:00,
2013-01-15 16:50:00,55.6,16.2,30.25,West,268,0.0,0.0,21,0.00,FEW,,0.00,WeatherDisplay:10.37,2013-01-16 00:50:00,
2013-01-15 16:51:00,55.4,16.1,30.25,West,268,0.0,0.0,21,0.00,FEW,,0.00,WeatherDisplay:10.37,2013-01-16 00:51:00,
2013-01-15 16:54:00,55.0,16.8,30.26,West,268,0.0,0.0,22,0.00,FEW,,0.00,WeatherDisplay:10.37,2013-01-16 00:54:00,
2013-01-15 16:55:00,54.8,17.7,30.26,West,268,0.0,0.0,23,0.00,FEW,,0.00,WeatherDisplay:10.37,2013-01-16 00:55:00,
2013-01-15 16:56:00,54.7,17.6,30.26,West,268,0.0,0.0,23,0.00,FEW,,0.00,WeatherDisplay:10.37,2013-01-16 00:56:00,
2013-01-15 16:57:00,54.7,18.6,30.26,West,268,0.0,0.0,24,0.00,FEW,,0.00,WeatherDisplay:10.37,2013-01-16 00:57:00,
2013-01-15 17:00:00,53.9,19.8,30.26,West,268,0.0,0.0,26,0.00,FEW,,0.00,WeatherDisplay:10.37,2013-01-16 01:00:00,
2013-01-15 17:02:00,53.5,18.5,30.26,West,268,0.0,0.0,25,0.00,FEW,,0.00,WeatherDisplay:10.37,2013-01-16 01:02:00,
2013-01-15 17:06:00,52.6,18.6,30.27,West,268,0.0,0.0,26,0.00,FEW,,0.00,WeatherDisplay:10.37,2013-01-16 01:06:00,
2013-01-15 17:07:00,52.3,19.3,30.27,West,268,0.0,0.0,27,0.00,FEW,,0.00,WeatherDisplay:10.37,2013-01-16 01:07:00,
2013-01-15 17:11:00,51.6,18.7,30.27,West,268,0.0,0.0,27,0.00,FEW,,0.00,WeatherDisplay:10.37,2013-01-16 01:11:00,
2013-01-15 17:13:00,51.1,18.2,30.27,West,268,0.0,0.0,27,0.00,FEW,,0.00,WeatherDisplay:10.37,2013-01-16 01:13:00,
2013-01-15 17:14:00,51.0,18.1,30.27,West,268,0.0,0.0,27,0.00,FEW,,0.00,WeatherDisplay:10.37,2013-01-16 01:14:00,
2013-01-15 17:17:00,50.5,18.6,30.27,West,268,0.0,0.0,28,0.00,FEW,,0.00,WeatherDisplay:10.37,2013-01-16 01:17:00,
2013-01-15 17:19:00,49.9,18.0,30.27,West,268,0.0,0.0,28,0.00,FEW,,0.00,WeatherDisplay:10.37,2013-01-16 01:19:00,
2013-01-15 17:21:00,49.6,17.8,30.27,West,268,0.0,0.0,28,0.00,FEW,,0.00,WeatherDisplay:10.37,2013-01-16 01:21:00,
2013-01-15 17:22:00,49.5,19.3,30.27,West,268,0.0,0.0,30,0.00,FEW,,0.00,WeatherDisplay:10.37,2013-01-16 01:22:00,
2013-01-15 17:25:00,49.2,17.4,30.28,West,268,0.0,0.0,28,0.00,FEW,,0.00,WeatherDisplay:10.37,2013-01-16 01:25:00,
2013-01-15 17:27:00,48.9,18.0,30.27,West,268,0.0,0.0,29,0.00,FEW,,0.00,WeatherDisplay:10.37,2013-01-16 01:27:00,
2013-01-15 17:30:00,48.5,16.8,30.24,West,268,0.0,0.0,28,0.00,FEW,,0.00,WeatherDisplay:10.37,2013-01-16 01:30:00,
2013-01-15 17:31:00,48.3,17.5,30.24,West,268,0.0,0.0,29,0.00,FEW,,0.00,WeatherDisplay:10.37,2013-01-16 01:31:00,
2013-01-15 17:35:00,48.0,18.0,30.24,West,268,0.0,0.0,30,0.00,FEW,,0.00,WeatherDisplay:10.37,2013-01-16 01:35:00,
2013-01-15 17:36:00,47.7,18.5,30.24,West,268,0.0,0.0,31,0.00,FEW,,0.00,WeatherDisplay:10.37,2013-01-16 01:36:00,
2013-01-15 17:39:00,47.4,18.2,30.25,West,268,0.0,0.0,31,0.00,FEW,,0.00,WeatherDisplay:10.37,2013-01-16 01:39:00,
2013-01-15 17:40:00,47.4,18.2,30.25,West,268,0.0,0.0,31,0.00,FEW,,0.00,WeatherDisplay:10.37,2013-01-16 01:40:00,
2013-01-15 17:41:00,47.3,18.1,30.25,West,268,0.0,0.0,31,0.00,FEW,,0.00,WeatherDisplay:10.37,2013-01-16 01:41:00,
2013-01-15 17:42:00,47.3,18.1,30.25,West,268,0.0,0.0,31,0.00,FEW,,0.00,WeatherDisplay:10.37,2013-01-16 01:42:00,
2013-01-15 17:45:00,47.1,17.2,30.25,West,268,0.0,0.0,30,0.00,FEW,,0.00,WeatherDisplay:10.37,2013-01-16 01:45:00,
2013-01-15 17:47:00,47.1,17.2,30.25,West,268,0.0,0.0,30,0.00,FEW,,0.00,WeatherDisplay:10.37,2013-01-16 01:47:00,
2013-01-15 17:52:00,46.8,17.7,30.25,West,268,0.0,0.0,31,0.00,FEW,,0.00,WeatherDisplay:10.37,2013-01-16 01:52:00,
2013-01-15 17:53:00,46.8,17.7,30.25,West,268,0.0,0.0,31,0.00,FEW,,0.00,WeatherDisplay:10.37,2013-01-16 01:53:00,
2013-01-15 17:54:00,46.8,17.7,30.25,West,268,0.0,0.0,31,0.00,FEW,,0.00,WeatherDisplay:10.37,2013-01-16 01:54:00,
2013-01-15 17:56:00,46.8,17.7,30.25,West,268,0.0,0.0,31,0.00,FEW,,0.00,WeatherDisplay:10.37,2013-01-16 01:56:00,
2013-01-15 17:58:00,46.7,17.6,30.25,West,268,0.0,0.0,31,0.00,FEW,,0.00,WeatherDisplay:10.37,2013-01-16 01:58:00,
2013-01-15 17:59:00,46.7,17.6,30.25,West,268,0.0,0.0,31,0.00,FEW,,0.00,WeatherDisplay:10.37,2013-01-16 01:59:00,
2013-01-15 18:01:00,46.7,17.6,30.25,West,268,0.0,0.0,31,0.00,FEW,,0.00,WeatherDisplay:10.37,2013-01-16 02:01:00,
2013-01-15 18:02:00,46.7,17.6,30.26,SE,140,0.0,0.0,31,0.00,FEW,,0.00,WeatherDisplay:10.37,2013-01-16 02:02:00,
2013-01-15 18:04:00,46.7,16.9,30.25,East,79,0.0,0.0,30,0.00,FEW,,0.00,WeatherDisplay:10.37,2013-01-16 02:04:00,
2013-01-15 18:05:00,46.7,17.6,30.25,West,259,0.0,0.0,31,0.00,FEW,,0.00,WeatherDisplay:10.37,2013-01-16 02:05:00,
2013-01-15 18:07:00,46.7,17.6,30.26,East,89,0.0,0.0,31,0.00,FEW,,0.00,WeatherDisplay:10.37,2013-01-16 02:07:00,
2013-01-15 18:10:00,46.7,17.6,30.26,East,91,0.0,0.0,31,0.00,FEW,,0.00,WeatherDisplay:10.37,2013-01-16 02:10:00,
2013-01-15 18:13:00,46.5,17.4,30.26,East,81,0.0,0.0,31,0.00,FEW,,0.00,WeatherDisplay:10.37,2013-01-16 02:13:00,
2013-01-15 18:15:00,46.4,18.1,30.26,ENE,77,0.0,0.0,32,0.00,FEW,,0.00,WeatherDisplay:10.37,2013-01-16 02:15:00,
2013-01-15 18:19:00,46.1,17.8,30.27,ENE,77,0.0,0.0,32,0.00,FEW,,0.00,WeatherDisplay:10.37,2013-01-16 02:19:00,
2013-01-15 18:20:00,46.1,17.8,30.27,ENE,77,0.0,0.0,32,0.00,FEW,,0.00,WeatherDisplay:10.37,2013-01-16 02:20:00,
2013-01-15 18:22:00,46.1,17.8,30.27,ENE,77,0.0,0.0,32,0.00,FEW,,0.00,WeatherDisplay:10.37,2013-01-16 02:22:00,
2013-01-15 18:23:00,46.0,17.7,30.27,ENE,77,0.0,0.0,32,0.00,FEW,,0.00,WeatherDisplay:10.37,2013-01-16 02:23:00,
2013-01-15 18:25:00,45.8,17.6,30.27,ENE,77,0.0,0.0,32,0.00,FEW,,0.00,WeatherDisplay:10.37,2013-01-16 02:25:00,
2013-01-15 18:26:00,45.8,18.3,30.27,ENE,77,0.0,0.0,33,0.00,FEW,,0.00,WeatherDisplay:10.37,2013-01-16 02:26:00,
2013-01-15 18:28:00,45.5,18.0,30.31,ENE,77,0.0,0.0,33,0.00,FEW,,0.00,WeatherDisplay:10.37,2013-01-16 02:28:00,
2013-01-15 18:30:00,45.5,18.0,30.31,ENE,77,0.0,0.0,33,0.00,FEW,,0.00,WeatherDisplay:10.37,2013-01-16 02:30:00,
2013-01-15 18:31:00,45.4,17.9,30.31,ENE,77,0.0,0.0,33,0.00,FEW,,0.00,WeatherDisplay:10.37,2013-01-16 02:31:00,
2013-01-15 18:34:00,45.2,17.8,30.32,ENE,77,0.0,0.0,33,0.00,FEW,,0.00,WeatherDisplay:10.37,2013-01-16 02:34:00,
2013-01-15 18:38:00,44.8,18.1,30.32,ENE,77,0.0,0.0,34,0.00,FEW,,0.00,WeatherDisplay:10.37,2013-01-16 02:38:00,
2013-01-15 18:39:00,44.8,18.1,30.32,ENE,77,0.0,0.0,34,0.00,FEW,,0.00,WeatherDisplay:10.37,2013-01-16 02:39:00,
2013-01-15 18:40:00,44.8,18.1,30.32,ENE,77,0.0,0.0,34,0.00,FEW,,0.00,WeatherDisplay:10.37,2013-01-16 02:40:00,
2013-01-15 18:44:00,44.5,17.8,30.32,ENE,77,0.0,0.0,34,0.00,FEW,,0.00,WeatherDisplay:10.37,2013-01-16 02:44:00,
2013-01-15 18:45:00,44.5,17.8,30.32,ENE,77,0.0,0.0,34,0.00,FEW,,0.00,WeatherDisplay:10.37,2013-01-16 02:45:00,
2013-01-15 18:49:00,44.3,17.7,30.32,ENE,77,0.0,0.0,34,0.00,FEW,,0.00,WeatherDisplay:10.37,2013-01-16 02:49:00,
2013-01-15 18:50:00,44.3,17.7,30.32,ENE,77,0.0,0.0,34,0.00,FEW,,0.00,WeatherDisplay:10.37,2013-01-16 02:50:00,
2013-01-15 18:51:00,44.2,17.6,30.32,ENE,77,0.0,0.0,34,0.00,FEW,,0.00,WeatherDisplay:10.37,2013-01-16 02:51:00,
2013-01-15 18:55:00,44.1,17.5,30.32,ENE,78,0.0,0.0,34,0.00,FEW,,0.00,WeatherDisplay:10.37,2013-01-16 02:55:00,
2013-01-15 18:56:00,44.1,17.5,30.32,ENE,78,0.0,0.0,34,0.00,FEW,,0.00,WeatherDisplay:10.37,2013-01-16 02:56:00,
2013-01-15 19:01:00,43.9,17.3,30.32,ENE,78,1.1,0.0,34,0.00,FEW,,0.00,WeatherDisplay:10.37,2013-01-16 03:01:00,
2013-01-15 19:03:00,43.8,17.2,30.32,ENE,78,0.0,0.0,34,0.00,FEW,,0.00,WeatherDisplay:10.37,2013-01-16 03:03:00,
2013-01-15 19:07:00,43.8,19.2,30.32,ENE,78,0.0,0.0,37,0.00,FEW,,0.00,WeatherDisplay:10.37,2013-01-16 03:07:00,
2013-01-15 19:08:00,43.8,17.2,30.32,ENE,78,0.0,0.0,34,0.00,FEW,,0.00,WeatherDisplay:10.37,2013-01-16 03:08:00,
2013-01-15 19:10:00,43.8,16.5,30.32,ENE,78,0.0,0.0,33,0.00,FEW,,0.00,WeatherDisplay:10.37,2013-01-16 03:10:00,
2013-01-15 19:12:00,43.8,16.5,30.32,ENE,78,0.0,0.0,33,0.00,FEW,,0.00,WeatherDisplay:10.37,2013-01-16 03:12:00,
2013-01-15 19:14:00,43.9,17.3,30.32,ENE,78,0.0,0.0,34,0.00,FEW,,0.00,WeatherDisplay:10.37,2013-01-16 03:14:00,
2013-01-15 19:15:00,43.9,18.0,30.32,ENE,78,0.0,0.0,35,0.00,FEW,,0.00,WeatherDisplay:10.37,2013-01-16 03:15:00,
2013-01-15 19:17:00,43.9,17.3,30.32,ENE,78,0.0,0.0,34,0.00,FEW,,0.00,WeatherDisplay:10.37,2013-01-16 03:17:00,
2013-01-15 19:19:00,43.9,17.3,30.32,ENE,78,0.0,0.0,34,0.00,FEW,,0.00,WeatherDisplay:10.37,2013-01-16 03:19:00,
2013-01-15 19:20:00,43.9,17.3,30.32,ENE,78,0.0,0.0,34,0.00,FEW,,0.00,WeatherDisplay:10.37,2013-01-16 03:20:00,
2013-01-15 19:22:00,43.8,17.9,30.32,ENE,78,0.0,0.0,35,0.00,FEW,,0.00,WeatherDisplay:10.37,2013-01-16 03:22:00,
2013-01-15 19:25:00,43.5,19.0,30.32,ENE,78,0.0,1.0,37,0.00,FEW,,0.00,WeatherDisplay:10.37,2013-01-16 03:25:00,
2013-01-15 19:30:00,43.2,18.6,30.30,ENE,78,0.0,0.0,37,0.00,FEW,,0.00,WeatherDisplay:10.37,2013-01-16 03:30:00,
2013-01-15 19:35:00,43.1,17.3,30.30,ENE,72,0.0,0.0,35,0.00,FEW,,0.00,WeatherDisplay:10.37,2013-01-16 03:35:00,
2013-01-15 19:37:00,42.9,17.1,30.31,ENE,75,0.0,0.0,35,0.00,FEW,,0.00,WeatherDisplay:10.37,2013-01-16 03:37:00,
2013-01-15 19:38:00,42.9,17.1,30.31,ENE,75,0.0,0.0,35,0.00,FEW,,0.00,WeatherDisplay:10.37,2013-01-16 03:38:00,
2013-01-15 19:41:00,43.1,16.6,30.31,ESE,107,2.3,2.3,34,0.00,FEW,,0.00,WeatherDisplay:10.37,2013-01-16 03:41:00,
2013-01-15 19:43:00,43.2,16.7,30.31,ESE,107,1.1,1.1,34,0.00,FEW,,0.00,WeatherDisplay:10.37,2013-01-16 03:43:00,
2013-01-15 19:47:00,43.3,17.4,30.31,ESE,111,0.0,0.0,35,0.00,FEW,,0.00,WeatherDisplay:10.37,2013-01-16 03:47:00,
2013-01-15 19:48:00,43.3,18.1,30.31,ESE,111,0.0,0.0,36,0.00,FEW,,0.00,WeatherDisplay:10.37,2013-01-16 03:48:00,
2013-01-15 19:51:00,43.3,17.4,30.31,ENE,77,0.0,0.0,35,0.00,FEW,,0.00,WeatherDisplay:10.37,2013-01-16 03:51:00,
2013-01-15 19:54:00,43.3,17.4,30.31,ENE,77,1.1,0.0,35,0.00,FEW,,0.00,WeatherDisplay:10.37,2013-01-16 03:54:00,
2013-01-15 19:56:00,43.3,17.4,30.31,ENE,77,0.0,0.0,35,0.00,FEW,,0.00,WeatherDisplay:10.37,2013-01-16 03:56:00,
2013-01-15 19:59:00,43.2,16.7,30.31,ENE,77,1.0,0.0,34,0.00,FEW,,0.00,WeatherDisplay:10.37,2013-01-16 03:59:00,
2013-01-15 20:00:00,43.2,16.7,30.31,ENE,77,0.0,1.0,34,0.00,FEW,,0.00,WeatherDisplay:10.37,2013-01-16 04:00:00,
2013-01-15 20:02:00,43.1,16.6,30.31,ENE,77,0.0,0.0,34,0.00,CLR,,0.00,WeatherDisplay:10.37,2013-01-16 04:02:00,
2013-01-15 20:04:00,43.1,16.6,30.31,SE,128,1.1,1.1,34,0.00,CLR,,0.00,WeatherDisplay:10.37,2013-01-16 04:04:00,
2013-01-15 20:05:00,43.1,15.9,30.31,ESE,113,1.1,1.1,33,0.00,CLR,,0.00,WeatherDisplay:10.37,2013-01-16 04:05:00,
2013-01-15 20:09:00,43.3,15.4,30.31,East,79,0.0,0.0,32,0.00,CLR,,0.00,WeatherDisplay:10.37,2013-01-16 04:09:00,
2013-01-15 20:10:00,43.3,15.4,30.31,East,84,0.0,1.0,32,0.00,CLR,,0.00,WeatherDisplay:10.37,2013-01-16 04:10:00,
2013-01-15 20:11:00,43.3,15.4,30.31,ENE,74,0.0,0.0,32,0.00,CLR,,0.00,WeatherDisplay:10.37,2013-01-16 04:11:00,
2013-01-15 20:15:00,43.7,15.0,30.30,ENE,78,0.0,3.0,31,0.00,CLR,,0.00,WeatherDisplay:10.37,2013-01-16 04:15:00,
2013-01-15 20:16:00,43.8,15.8,30.30,East,81,0.0,0.0,32,0.00,CLR,,0.00,WeatherDisplay:10.37,2013-01-16 04:16:00,
2013-01-15 20:18:00,43.8,17.2,30.31,SE,144,0.0,0.0,34,0.00,CLR,,0.00,WeatherDisplay:10.37,2013-01-16 04:18:00,
2013-01-15 20:21:00,43.5,18.3,30.31,SE,144,0.0,0.0,36,0.00,CLR,,0.00,WeatherDisplay:10.37,2013-01-16 04:21:00,
2013-01-15 20:22:00,43.3,18.1,30.31,SE,144,0.0,0.0,36,0.00,CLR,,0.00,WeatherDisplay:10.37,2013-01-16 04:22:00,
2013-01-15 20:24:00,43.1,18.6,30.31,SE,144,0.0,0.0,37,0.00,CLR,,0.00,WeatherDisplay:10.37,2013-01-16 04:24:00,
2013-01-15 20:26:00,42.8,18.9,30.31,SE,144,0.0,0.0,38,0.00,CLR,,0.00,WeatherDisplay:10.37,2013-01-16 04:26:00,
2013-01-15 20:29:00,42.2,19.0,30.30,SE,144,0.0,0.0,39,0.00,CLR,,0.00,WeatherDisplay:10.37,2013-01-16 04:29:00,
2013-01-15 20:30:00,42.1,19.5,30.30,SE,144,0.0,0.0,40,0.00,CLR,,0.00,WeatherDisplay:10.37,2013-01-16 04:30:00,
2013-01-15 20:31:00,41.9,19.3,30.30,SE,144,0.0,0.0,40,0.00,CLR,,0.00,WeatherDisplay:10.37,2013-01-16 04:31:00,
2013-01-15 20:32:00,41.6,19.0,30.30,SE,144,0.0,0.0,40,0.00,CLR,,0.00,WeatherDisplay:10.37,2013-01-16 04:32:00,
2013-01-15 20:35:00,41.3,18.8,30.30,SE,144,0.0,0.0,40,0.00,CLR,,0.00,WeatherDisplay:10.37,2013-01-16 04:35:00,
2013-01-15 20:38:00,41.1,19.2,30.30,SE,144,0.0,0.0,41,0.00,CLR,,0.00,WeatherDisplay:10.37,2013-01-16 04:38:00,
2013-01-15 20:39:00,40.9,19.0,30.30,SE,144,0.0,0.0,41,0.00,CLR,,0.00,WeatherDisplay:10.37,2013-01-16 04:39:00,
2013-01-15 20:42:00,40.6,19.3,30.30,SE,144,0.0,0.0,42,0.00,CLR,,0.00,WeatherDisplay:10.37,2013-01-16 04:42:00,
2013-01-15 20:44:00,40.5,19.2,30.30,SE,144,0.0,0.0,42,0.00,CLR,,0.00,WeatherDisplay:10.37,2013-01-16 04:44:00,
2013-01-15 20:47:00,40.2,19.5,30.30,SE,144,0.0,0.0,43,0.00,CLR,,0.00,WeatherDisplay:10.37,2013-01-16 04:47:00,
2013-01-15 20:49:00,40.1,19.4,30.30,SE,144,0.0,0.0,43,0.00,CLR,,0.00,WeatherDisplay:10.37,2013-01-16 04:49:00,
2013-01-15 20:50:00,39.9,19.2,30.30,SE,144,0.0,0.0,43,0.00,CLR,,0.00,WeatherDisplay:10.37,2013-01-16 04:50:00,
2013-01-15 20:53:00,39.8,19.1,30.30,SE,144,0.0,0.0,43,0.00,CLR,,0.00,WeatherDisplay:10.37,2013-01-16 04:53:00,
2013-01-15 20:55:00,39.8,19.1,30.30,SE,144,0.0,0.0,43,0.00,CLR,,0.00,WeatherDisplay:10.37,2013-01-16 04:55:00,
2013-01-15 20:59:00,39.5,18.8,30.30,SE,144,0.0,0.0,43,0.00,CLR,,0.00,WeatherDisplay:10.37,2013-01-16 04:59:00,
2013-01-15 21:01:00,39.5,18.8,30.30,SE,144,0.0,0.0,43,0.00,CLR,,0.00,WeatherDisplay:10.37,2013-01-16 05:01:00,
2013-01-15 21:02:00,39.3,18.6,30.30,SE,144,0.0,0.0,43,0.00,CLR,,0.00,WeatherDisplay:10.37,2013-01-16 05:02:00,
2013-01-15 21:03:00,39.3,19.2,30.30,SE,144,0.0,0.0,44,0.00,CLR,,0.00,WeatherDisplay:10.37,2013-01-16 05:03:00,
2013-01-15 21:08:00,39.1,19.0,30.30,SE,144,0.0,0.0,44,0.00,CLR,,0.00,WeatherDisplay:10.37,2013-01-16 05:08:00,
2013-01-15 21:09:00,38.9,19.3,30.30,SE,144,0.0,0.0,45,0.00,CLR,,0.00,WeatherDisplay:10.37,2013-01-16 05:09:00,
2013-01-15 21:11:00,38.9,19.3,30.30,SE,144,0.0,0.0,45,0.00,CLR,,0.00,WeatherDisplay:10.37,2013-01-16 05:11:00,
2013-01-15 21:13:00,38.8,19.2,30.31,SE,144,0.0,0.0,45,0.00,CLR,,0.00,WeatherDisplay:10.37,2013-01-16 05:13:00,
2013-01-15 21:14:00,38.6,19.6,30.30,SE,144,0.0,0.0,46,0.00,CLR,,0.00,WeatherDisplay:10.37,2013-01-16 05:14:00,
2013-01-15 21:15:00,38.7,19.1,30.31,SE,144,0.0,0.0,45,0.00,CLR,,0.00,WeatherDisplay:10.37,2013-01-16 05:15:00,
2013-01-15 21:18:00,38.5,19.5,30.31,NNE,23,0.0,0.0,46,0.00,CLR,,0.00,WeatherDisplay:10.37,2013-01-16 05:18:00,
2013-01-15 21:20:00,38.5,19.5,30.31,ESE,112,0.0,0.0,46,0.00,CLR,,0.00,WeatherDisplay:10.37,2013-01-16 05:20:00,
2013-01-15 21:23:00,38.5,19.0,30.31,SSW,194,0.0,0.0,45,0.00,CLR,,0.00,WeatherDisplay:10.37,2013-01-16 05:23:00,
2013-01-15 21:25:00,38.5,19.0,30.31,SSW,212,0.0,0.0,45,0.00,CLR,,0.00,WeatherDisplay:10.37,2013-01-16 05:25:00,
2013-01-15 21:29:00,38.5,19.5,30.30,SSW,194,0.0,0.0,46,0.00,CLR,,0.00,WeatherDisplay:10.37,2013-01-16 05:29:00,
2013-01-15 21:30:00,38.5,19.5,30.30,SSW,194,0.0,0.0,46,0.00,CLR,,0.00,WeatherDisplay:10.37,2013-01-16 05:30:00,
2013-01-15 21:31:00,38.3,19.3,30.30,SSW,194,0.0,0.0,46,0.00,CLR,,0.00,WeatherDisplay:10.37,2013-01-16 05:31:00,
2013-01-15 21:33:00,38.3,19.8,30.30,SSW,193,0.0,0.0,47,0.00,CLR,,0.00,WeatherDisplay:10.37,2013-01-16 05:33:00,
2013-01-15 21:35:00,38.2,19.8,30.30,SSW,194,0.0,0.0,47,0.00,CLR,,0.00,WeatherDisplay:10.37,2013-01-16 05:35:00,
2013-01-15 21:38:00,38.0,19.5,30.29,SSW,193,0.0,0.0,47,0.00,CLR,,0.00,WeatherDisplay:10.37,2013-01-16 05:38:00,
2013-01-15 21:39:00,38.0,19.5,30.30,SSW,193,0.0,0.0,47,0.00,CLR,,0.00,WeatherDisplay:10.37,2013-01-16 05:39:00,
2013-01-15 21:40:00,38.0,19.5,30.30,SSW,193,0.0,0.0,47,0.00,CLR,,0.00,WeatherDisplay:10.37,2013-01-16 05:40:00,
2013-01-15 21:43:00,37.9,19.9,30.30,ESE,103,0.0,0.0,48,0.00,CLR,,0.00,WeatherDisplay:10.37,2013-01-16 05:43:00,
2013-01-15 21:44:00,37.9,19.9,30.30,ESE,103,0.0,0.0,48,0.00,CLR,,0.00,WeatherDisplay:10.37,2013-01-16 05:44:00,
2013-01-15 21:46:00,37.8,19.3,30.30,ESE,103,0.0,0.0,47,0.00,CLR,,0.00,WeatherDisplay:10.37,2013-01-16 05:46:00,
2013-01-15 21:48:00,37.8,19.3,30.30,ESE,103,0.0,0.0,47,0.00,CLR,,0.00,WeatherDisplay:10.37,2013-01-16 05:48:00,
2013-01-15 21:50:00,37.8,19.8,30.30,ESE,103,0.0,0.0,48,0.00,CLR,,0.00,WeatherDisplay:10.37,2013-01-16 05:50:00,
2013-01-15 21:51:00,37.6,19.2,30.30,ESE,103,0.0,0.0,47,0.00,CLR,,0.00,WeatherDisplay:10.37,2013-01-16 05:51:00,
2013-01-15 21:53:00,37.6,19.7,30.30,ESE,103,0.0,0.0,48,0.00,CLR,,0.00,WeatherDisplay:10.37,2013-01-16 05:53:00,
2013-01-15 21:54:00,37.6,19.2,30.30,ESE,103,0.0,0.0,47,0.00,CLR,,0.00,WeatherDisplay:10.37,2013-01-16 05:54:00,
2013-01-15 21:55:00,37.6,19.2,30.30,ESE,103,0.0,0.0,47,0.00,CLR,,0.00,WeatherDisplay:10.37,2013-01-16 05:55:00,
2013-01-15 21:56:00,37.5,19.6,30.30,ESE,103,0.0,0.0,48,0.00,CLR,,0.00,WeatherDisplay:10.37,2013-01-16 05:56:00,
2013-01-15 22:00:00,37.5,19.6,30.30,ESE,103,0.0,0.0,48,0.00,CLR,,0.00,WeatherDisplay:10.37,2013-01-16 06:00:00,
2013-01-15 22:01:00,37.5,19.6,30.30,ESE,103,0.0,0.0,48,0.00,CLR,,0.00,WeatherDisplay:10.37,2013-01-16 06:01:00,
2013-01-15 22:02:00,37.3,19.4,30.30,ESE,103,0.0,0.0,48,0.00,CLR,,0.00,WeatherDisplay:10.37,2013-01-16 06:02:00,
2013-01-15 22:05:00,37.3,19.4,30.31,ESE,103,0.0,0.0,48,0.00,CLR,,0.00,WeatherDisplay:10.37,2013-01-16 06:05:00,
2013-01-15 22:06:00,37.2,19.3,30.31,ESE,103,0.0,0.0,48,0.00,CLR,,0.00,WeatherDisplay:10.37,2013-01-16 06:06:00,
2013-01-15 22:09:00,37.2,19.3,30.31,ESE,103,0.0,0.0,48,0.00,CLR,,0.00,WeatherDisplay:10.37,2013-01-16 06:09:00,
2013-01-15 22:12:00,37.0,19.6,30.31,ESE,103,0.0,0.0,49,0.00,CLR,,0.00,WeatherDisplay:10.37,2013-01-16 06:12:00,
2013-01-15 22:13:00,37.0,19.6,30.31,ESE,103,0.0,0.0,49,0.00,CLR,,0.00,WeatherDisplay:10.37,2013-01-16 06:13:00,
2013-01-15 22:14:00,37.0,19.6,30.31,ESE,103,0.0,0.0,49,0.00,CLR,,0.00,WeatherDisplay:10.37,2013-01-16 06:14:00,
2013-01-15 22:18:00,36.9,19.5,30.31,ESE,103,0.0,0.0,49,0.00,CLR,,0.00,WeatherDisplay:10.37,2013-01-16 06:18:00,
2013-01-15 22:20:00,36.8,19.9,30.31,ESE,103,0.0,0.0,50,0.00,CLR,,0.00,WeatherDisplay:10.37,2013-01-16 06:20:00,
2013-01-15 22:23:00,36.6,20.2,30.31,ESE,103,0.0,0.0,51,0.00,CLR,,0.00,WeatherDisplay:10.37,2013-01-16 06:23:00,
2013-01-15 22:25:00,36.6,20.1,30.31,ESE,103,0.0,0.0,51,0.00,CLR,,0.00,WeatherDisplay:10.37,2013-01-16 06:25:00,
2013-01-15 22:28:00,36.3,19.9,30.31,ESE,103,0.0,0.0,51,0.00,CLR,,0.00,WeatherDisplay:10.37,2013-01-16 06:28:00,
2013-01-15 22:29:00,36.3,19.9,30.30,ESE,103,0.0,0.0,51,0.00,CLR,,0.00,WeatherDisplay:10.37,2013-01-16 06:29:00,
2013-01-15 22:30:00,36.3,20.3,30.30,ESE,103,0.0,0.0,52,0.00,CLR,,0.00,WeatherDisplay:10.37,2013-01-16 06:30:00,
2013-01-15 22:32:00,36.2,19.8,30.30,ESE,103,0.0,0.0,51,0.00,CLR,,0.00,WeatherDisplay:10.37,2013-01-16 06:32:00,
2013-01-15 22:34:00,36.2,20.2,30.30,East,95,0.0,0.0,52,0.00,CLR,,0.00,WeatherDisplay:10.37,2013-01-16 06:34:00,
2013-01-15 22:38:00,36.3,19.4,30.30,East,79,0.0,0.0,50,0.00,CLR,,0.00,WeatherDisplay:10.37,2013-01-16 06:38:00,
2013-01-15 22:39:00,36.3,19.4,30.30,East,79,0.0,0.0,50,0.00,CLR,,0.00,WeatherDisplay:10.37,2013-01-16 06:39:00,
2013-01-15 22:40:00,36.3,19.9,30.30,East,79,0.0,0.0,51,0.00,CLR,,0.00,WeatherDisplay:10.37,2013-01-16 06:40:00,
2013-01-15 22:42:00,36.3,19.9,30.30,East,79,0.0,0.0,51,0.00,CLR,,0.00,WeatherDisplay:10.37,2013-01-16 06:42:00,
2013-01-15 22:45:00,36.5,20.0,30.30,East,79,0.0,0.0,51,0.00,CLR,,0.00,WeatherDisplay:10.37,2013-01-16 06:45:00,
2013-01-15 22:48:00,36.5,19.1,30.30,East,79,0.0,0.0,49,0.00,CLR,,0.00,WeatherDisplay:10.37,2013-01-16 06:48:00,
2013-01-15 22:50:00,36.5,19.1,30.30,East,79,0.0,0.0,49,0.00,CLR,,0.00,WeatherDisplay:10.37,2013-01-16 06:50:00,
2013-01-15 22:51:00,36.6,19.2,30.30,East,79,0.0,0.0,49,0.00,CLR,,0.00,WeatherDisplay:10.37,2013-01-16 06:51:00,
2013-01-15 22:52:00,36.6,19.2,30.30,East,79,0.0,0.0,49,0.00,CLR,,0.00,WeatherDisplay:10.37,2013-01-16 06:52:00,
2013-01-15 22:54:00,36.6,19.2,30.30,East,79,0.0,0.0,49,0.00,CLR,,0.00,WeatherDisplay:10.37,2013-01-16 06:54:00,
2013-01-15 22:58:00,36.8,19.4,30.30,East,79,0.0,0.0,49,0.00,CLR,,0.00,WeatherDisplay:10.37,2013-01-16 06:58:00,
2013-01-15 22:59:00,36.8,19.4,30.30,East,79,0.0,0.0,49,0.00,CLR,,0.00,WeatherDisplay:10.37,2013-01-16 06:59:00,
2013-01-15 23:03:00,36.8,19.4,30.30,East,79,0.0,0.0,49,0.00,CLR,,0.00,WeatherDisplay:10.37,2013-01-16 07:03:00,
2013-01-15 23:04:00,36.8,19.4,30.30,East,79,0.0,0.0,49,0.00,CLR,,0.00,WeatherDisplay:10.37,2013-01-16 07:04:00,
2013-01-15 23:05:00,36.8,19.4,30.30,East,79,0.0,0.0,49,0.00,CLR,,0.00,WeatherDisplay:10.37,2013-01-16 07:05:00,
2013-01-15 23:09:00,36.8,19.4,30.30,East,79,0.0,0.0,49,0.00,CLR,,0.00,WeatherDisplay:10.37,2013-01-16 07:09:00,
2013-01-15 23:10:00,36.8,19.4,30.30,East,79,0.0,0.0,49,0.00,CLR,,0.00,WeatherDisplay:10.37,2013-01-16 07:10:00,
2013-01-15 23:11:00,36.8,19.4,30.29,East,79,0.0,0.0,49,0.00,CLR,,0.00,WeatherDisplay:10.37,2013-01-16 07:11:00,
2013-01-15 23:16:00,36.6,19.7,30.30,ENE,70,0.0,0.0,50,0.00,CLR,,0.00,WeatherDisplay:10.37,2013-01-16 07:16:00,
2013-01-15 23:18:00,36.6,19.7,30.29,ENE,65,0.0,0.0,50,0.00,CLR,,0.00,WeatherDisplay:10.37,2013-01-16 07:18:00,
2013-01-15 23:20:00,36.6,19.7,30.29,ENE,72,0.0,0.0,50,0.00,CLR,,0.00,WeatherDisplay:10.37,2013-01-16 07:20:00,
2013-01-15 23:21:00,36.6,19.7,30.29,ENE,77,0.0,0.0,50,0.00,CLR,,0.00,WeatherDisplay:10.37,2013-01-16 07:21:00,
2013-01-15 23:25:00,36.6,19.7,30.29,ENE,77,0.0,0.0,50,0.00,CLR,,0.00,WeatherDisplay:10.37,2013-01-16 07:25:00,
2013-01-15 23:27:00,36.6,19.7,30.29,ENE,77,0.0,0.0,50,0.00,CLR,,0.00,WeatherDisplay:10.37,2013-01-16 07:27:00,
2013-01-15 23:30:00,36.6,19.7,30.29,ENE,77,0.0,0.0,50,0.00,CLR,,0.00,WeatherDisplay:10.37,2013-01-16 07:30:00,
2013-01-15 23:31:00,36.6,19.7,30.29,ENE,77,0.0,0.0,50,0.00,CLR,,0.00,WeatherDisplay:10.37,2013-01-16 07:31:00,
2013-01-15 23:32:00,36.6,19.7,30.29,ENE,77,0.0,0.0,50,0.00,CLR,,0.00,WeatherDisplay:10.37,2013-01-16 07:32:00,
2013-01-15 23:33:00,36.5,19.6,30.29,ENE,77,0.0,0.0,50,0.00,CLR,,0.00,WeatherDisplay:10.37,2013-01-16 07:33:00,
2013-01-15 23:36:00,36.5,19.6,30.29,ENE,77,0.0,0.0,50,0.00,CLR,,0.00,WeatherDisplay:10.37,2013-01-16 07:36:00,
2013-01-15 23:37:00,36.5,19.6,30.29,ENE,77,0.0,0.0,50,0.00,CLR,,0.00,WeatherDisplay:10.37,2013-01-16 07:37:00,
2013-01-15 23:40:00,36.5,19.6,30.29,ENE,77,0.0,0.0,50,0.00,CLR,,0.00,WeatherDisplay:10.37,2013-01-16 07:40:00,
2013-01-15 23:41:00,36.3,19.9,30.29,ENE,77,0.0,0.0,51,0.00,CLR,,0.00,WeatherDisplay:10.37,2013-01-16 07:41:00,
2013-01-15 23:43:00,36.3,19.9,30.29,ENE,77,0.0,0.0,51,0.00,CLR,,0.00,WeatherDisplay:10.37,2013-01-16 07:43:00,
2013-01-15 23:47:00,36.6,19.2,30.28,East,86,0.0,0.0,49,0.00,CLR,,0.00,WeatherDisplay:10.37,2013-01-16 07:47:00,
2013-01-15 23:48:00,36.6,19.2,30.29,East,86,0.0,0.0,49,0.00,CLR,,0.00,WeatherDisplay:10.37,2013-01-16 07:48:00,
2013-01-15 23:49:00,36.8,19.4,30.29,East,86,0.0,0.0,49,0.00,CLR,,0.00,WeatherDisplay:10.37,2013-01-16 07:49:00,
2013-01-15 23:50:00,36.9,19.5,30.28,East,101,0.0,0.0,49,0.00,CLR,,0.00,WeatherDisplay:10.37,2013-01-16 07:50:00,
2013-01-15 23:53:00,37.0,18.6,30.28,ENE,77,0.0,0.0,47,0.00,CLR,,0.00,WeatherDisplay:10.37,2013-01-16 07:53:00,
2013-01-15 23:55:00,37.3,18.9,30.28,ENE,77,0.0,0.0,47,0.00,CLR,,0.00,WeatherDisplay:10.37,2013-01-16 07:55:00,
2013-01-15 23:59:00,37.6,19.2,30.28,NE,56,0.0,0.0,47,0.00,CLR,,0.00,WeatherDisplay:10.37,2013-01-16 07:59:00,